<?xml version='1.0' encoding='UTF-8'?>
<gpx version="1.1" creator="https://www.komoot.de" xmlns="http://www.topografix.com/GPX/1/1" xmlns:xsi="http://www.w3.org/2001/XMLSchema-instance" xsi:schemaLocation="http://www.topografix.com/GPX/1/1 http://www.topografix.com/GPX/1/1/gpx.xsd">
  <metadata>
    <name>35_550GuennWehrHollwang</name>
    <author>
      <link href="https://www.komoot.de">
        <text>komoot</text>
        <type>text/html</type>
      </link>
    </author>
  </metadata>
  <trk>
    <name>35_550GuennWehrHollwang</name>
    <trkseg>
      <trkpt lat="47.541953" lon="7.871286">
        <ele>343.129171</ele>
        <time>2021-11-07T10:05:41.828Z</time>
      </trkpt>
      <trkpt lat="47.541953" lon="7.871286">
        <ele>343.129171</ele>
        <time>2021-11-07T10:05:41.842Z</time>
      </trkpt>
      <trkpt lat="47.542039" lon="7.871556">
        <ele>343.129171</ele>
        <time>2021-11-07T10:05:46.711Z</time>
      </trkpt>
      <trkpt lat="47.542067" lon="7.871664">
        <ele>343.129171</ele>
        <time>2021-11-07T10:05:48.404Z</time>
      </trkpt>
      <trkpt lat="47.542091" lon="7.871721">
        <ele>343.129171</ele>
        <time>2021-11-07T10:05:49.053Z</time>
      </trkpt>
      <trkpt lat="47.542218" lon="7.871866">
        <ele>343.129171</ele>
        <time>2021-11-07T10:05:54.615Z</time>
      </trkpt>
      <trkpt lat="47.542394" lon="7.872341">
        <ele>343.129171</ele>
        <time>2021-11-07T10:06:05.355Z</time>
      </trkpt>
      <trkpt lat="47.542436" lon="7.872494">
        <ele>343.463824</ele>
        <time>2021-11-07T10:06:08.848Z</time>
      </trkpt>
      <trkpt lat="47.542537" lon="7.872430">
        <ele>344.044860</ele>
        <time>2021-11-07T10:06:11.030Z</time>
      </trkpt>
      <trkpt lat="47.542714" lon="7.872334">
        <ele>345.041834</ele>
        <time>2021-11-07T10:06:18.274Z</time>
      </trkpt>
      <trkpt lat="47.542814" lon="7.872280">
        <ele>345.604806</ele>
        <time>2021-11-07T10:06:21.230Z</time>
      </trkpt>
      <trkpt lat="47.542919" lon="7.872226">
        <ele>346.192694</ele>
        <time>2021-11-07T10:06:25.134Z</time>
      </trkpt>
      <trkpt lat="47.543013" lon="7.872182">
        <ele>346.714114</ele>
        <time>2021-11-07T10:06:28.764Z</time>
      </trkpt>
      <trkpt lat="47.543233" lon="7.872082">
        <ele>347.931296</ele>
        <time>2021-11-07T10:06:35.862Z</time>
      </trkpt>
      <trkpt lat="47.543251" lon="7.872152">
        <ele>348.198746</ele>
        <time>2021-11-07T10:06:39.276Z</time>
      </trkpt>
      <trkpt lat="47.543332" lon="7.872237">
        <ele>348.723776</ele>
        <time>2021-11-07T10:06:42.686Z</time>
      </trkpt>
      <trkpt lat="47.544390" lon="7.872423">
        <ele>354.868319</ele>
        <time>2021-11-07T10:07:24.318Z</time>
      </trkpt>
      <trkpt lat="47.544883" lon="7.872555">
        <ele>358.304347</ele>
        <time>2021-11-07T10:07:46.661Z</time>
      </trkpt>
      <trkpt lat="47.545131" lon="7.872664">
        <ele>360.078536</ele>
        <time>2021-11-07T10:07:57.665Z</time>
      </trkpt>
      <trkpt lat="47.545375" lon="7.872836">
        <ele>361.931801</ele>
        <time>2021-11-07T10:08:08.606Z</time>
      </trkpt>
      <trkpt lat="47.545478" lon="7.872968">
        <ele>362.865868</ele>
        <time>2021-11-07T10:08:15.413Z</time>
      </trkpt>
      <trkpt lat="47.545515" lon="7.873015">
        <ele>363.200145</ele>
        <time>2021-11-07T10:08:17.370Z</time>
      </trkpt>
      <trkpt lat="47.545746" lon="7.873302">
        <ele>365.214847</ele>
        <time>2021-11-07T10:08:30.569Z</time>
      </trkpt>
      <trkpt lat="47.545934" lon="7.873549">
        <ele>366.622324</ele>
        <time>2021-11-07T10:08:40.669Z</time>
      </trkpt>
      <trkpt lat="47.546077" lon="7.873763">
        <ele>367.760834</ele>
        <time>2021-11-07T10:08:49.866Z</time>
      </trkpt>
      <trkpt lat="47.546135" lon="7.873859">
        <ele>368.247949</ele>
        <time>2021-11-07T10:08:53.105Z</time>
      </trkpt>
      <trkpt lat="47.546309" lon="7.874154">
        <ele>369.729119</ele>
        <time>2021-11-07T10:09:04.219Z</time>
      </trkpt>
      <trkpt lat="47.547126" lon="7.875801">
        <ele>375.883441</ele>
        <time>2021-11-07T10:09:49.981Z</time>
      </trkpt>
      <trkpt lat="47.547574" lon="7.876801">
        <ele>377.450691</ele>
        <time>2021-11-07T10:10:08.976Z</time>
      </trkpt>
      <trkpt lat="47.547992" lon="7.877974">
        <ele>377.593488</ele>
        <time>2021-11-07T10:10:21.777Z</time>
      </trkpt>
      <trkpt lat="47.548234" lon="7.878638">
        <ele>376.168869</ele>
        <time>2021-11-07T10:10:27.083Z</time>
      </trkpt>
      <trkpt lat="47.548422" lon="7.878959">
        <ele>375.366535</ele>
        <time>2021-11-07T10:10:29.919Z</time>
      </trkpt>
      <trkpt lat="47.548718" lon="7.879258">
        <ele>374.364511</ele>
        <time>2021-11-07T10:10:33.454Z</time>
      </trkpt>
      <trkpt lat="47.549140" lon="7.879391">
        <ele>372.990515</ele>
        <time>2021-11-07T10:10:37.640Z</time>
      </trkpt>
      <trkpt lat="47.549318" lon="7.879398">
        <ele>372.250609</ele>
        <time>2021-11-07T10:10:39.266Z</time>
      </trkpt>
      <trkpt lat="47.549327" lon="7.879547">
        <ele>371.831046</ele>
        <time>2021-11-07T10:10:40.255Z</time>
      </trkpt>
      <trkpt lat="47.549435" lon="7.879881">
        <ele>370.792344</ele>
        <time>2021-11-07T10:10:42.623Z</time>
      </trkpt>
      <trkpt lat="47.549726" lon="7.880786">
        <ele>367.980833</ele>
        <time>2021-11-07T10:10:49.192Z</time>
      </trkpt>
      <trkpt lat="47.549927" lon="7.881490">
        <ele>365.864698</ele>
        <time>2021-11-07T10:10:54.226Z</time>
      </trkpt>
      <trkpt lat="47.550234" lon="7.883221">
        <ele>361.572207</ele>
        <time>2021-11-07T10:11:06.646Z</time>
      </trkpt>
      <trkpt lat="47.550332" lon="7.884727">
        <ele>357.260625</ele>
        <time>2021-11-07T10:11:16.490Z</time>
      </trkpt>
      <trkpt lat="47.550391" lon="7.885109">
        <ele>355.941750</ele>
        <time>2021-11-07T10:11:19.022Z</time>
      </trkpt>
      <trkpt lat="47.550548" lon="7.885799">
        <ele>353.491110</ele>
        <time>2021-11-07T10:11:23.627Z</time>
      </trkpt>
      <trkpt lat="47.550677" lon="7.886476">
        <ele>351.123579</ele>
        <time>2021-11-07T10:11:28.057Z</time>
      </trkpt>
      <trkpt lat="47.550758" lon="7.887295">
        <ele>347.843078</ele>
        <time>2021-11-07T10:11:33.199Z</time>
      </trkpt>
      <trkpt lat="47.550789" lon="7.887816">
        <ele>345.709168</ele>
        <time>2021-11-07T10:11:36.431Z</time>
      </trkpt>
      <trkpt lat="47.550831" lon="7.888611">
        <ele>342.455670</ele>
        <time>2021-11-07T10:11:41.387Z</time>
      </trkpt>
      <trkpt lat="47.550833" lon="7.889069">
        <ele>340.587005</ele>
        <time>2021-11-07T10:11:44.197Z</time>
      </trkpt>
      <trkpt lat="47.550915" lon="7.890600">
        <ele>334.508796</ele>
        <time>2021-11-07T10:11:53.590Z</time>
      </trkpt>
      <trkpt lat="47.550904" lon="7.891725">
        <ele>330.075876</ele>
        <time>2021-11-07T10:12:00.594Z</time>
      </trkpt>
      <trkpt lat="47.550892" lon="7.893176">
        <ele>327.163486</ele>
        <time>2021-11-07T10:12:10.206Z</time>
      </trkpt>
      <trkpt lat="47.550908" lon="7.894308">
        <ele>325.236883</ele>
        <time>2021-11-07T10:12:19.411Z</time>
      </trkpt>
      <trkpt lat="47.550878" lon="7.895158">
        <ele>324.208519</ele>
        <time>2021-11-07T10:12:26.596Z</time>
      </trkpt>
      <trkpt lat="47.550838" lon="7.895509">
        <ele>323.864342</ele>
        <time>2021-11-07T10:12:29.760Z</time>
      </trkpt>
      <trkpt lat="47.550660" lon="7.896255">
        <ele>323.099304</ele>
        <time>2021-11-07T10:12:36.249Z</time>
      </trkpt>
      <trkpt lat="47.550639" lon="7.896345">
        <ele>323.007231</ele>
        <time>2021-11-07T10:12:37.436Z</time>
      </trkpt>
      <trkpt lat="47.550648" lon="7.896481">
        <ele>322.875105</ele>
        <time>2021-11-07T10:12:38.391Z</time>
      </trkpt>
      <trkpt lat="47.550819" lon="7.898109">
        <ele>319.849497</ele>
        <time>2021-11-07T10:12:50.139Z</time>
      </trkpt>
      <trkpt lat="47.550801" lon="7.900244">
        <ele>314.423587</ele>
        <time>2021-11-07T10:13:03.976Z</time>
      </trkpt>
      <trkpt lat="47.550769" lon="7.901362">
        <ele>311.390351</ele>
        <time>2021-11-07T10:13:11.248Z</time>
      </trkpt>
      <trkpt lat="47.550757" lon="7.901591">
        <ele>310.767742</ele>
        <time>2021-11-07T10:13:13.384Z</time>
      </trkpt>
      <trkpt lat="47.550688" lon="7.902451">
        <ele>308.420163</ele>
        <time>2021-11-07T10:13:21.818Z</time>
      </trkpt>
      <trkpt lat="47.550498" lon="7.903445">
        <ele>305.768181</ele>
        <time>2021-11-07T10:13:32.068Z</time>
      </trkpt>
      <trkpt lat="47.550302" lon="7.904164">
        <ele>303.782876</ele>
        <time>2021-11-07T10:13:39.328Z</time>
      </trkpt>
      <trkpt lat="47.550025" lon="7.904774">
        <ele>301.900538</ele>
        <time>2021-11-07T10:13:46.253Z</time>
      </trkpt>
      <trkpt lat="47.549868" lon="7.905010">
        <ele>301.129279</ele>
        <time>2021-11-07T10:13:49.385Z</time>
      </trkpt>
      <trkpt lat="47.549867" lon="7.905155">
        <ele>300.826348</ele>
        <time>2021-11-07T10:13:50.782Z</time>
      </trkpt>
      <trkpt lat="47.550067" lon="7.905245">
        <ele>300.179396</ele>
        <time>2021-11-07T10:13:53.707Z</time>
      </trkpt>
      <trkpt lat="47.550283" lon="7.905413">
        <ele>299.424323</ele>
        <time>2021-11-07T10:13:57.157Z</time>
      </trkpt>
      <trkpt lat="47.550497" lon="7.905558">
        <ele>298.695983</ele>
        <time>2021-11-07T10:14:00.515Z</time>
      </trkpt>
      <trkpt lat="47.549539" lon="7.908625">
        <ele>293.178463</ele>
        <time>2021-11-07T10:14:24.972Z</time>
      </trkpt>
      <trkpt lat="47.549520" lon="7.908678">
        <ele>293.098401</ele>
        <time>2021-11-07T10:14:25.468Z</time>
      </trkpt>
      <trkpt lat="47.549254" lon="7.909559">
        <ele>292.024449</ele>
        <time>2021-11-07T10:14:33.354Z</time>
      </trkpt>
      <trkpt lat="47.549195" lon="7.909756">
        <ele>291.851058</ele>
        <time>2021-11-07T10:14:35.100Z</time>
      </trkpt>
      <trkpt lat="47.549102" lon="7.910058">
        <ele>291.584001</ele>
        <time>2021-11-07T10:14:37.815Z</time>
      </trkpt>
      <trkpt lat="47.549012" lon="7.910340">
        <ele>291.333044</ele>
        <time>2021-11-07T10:14:40.319Z</time>
      </trkpt>
      <trkpt lat="47.548412" lon="7.912168">
        <ele>289.847341</ele>
        <time>2021-11-07T10:14:56.633Z</time>
      </trkpt>
      <trkpt lat="47.548027" lon="7.913334">
        <ele>289.111005</ele>
        <time>2021-11-07T10:15:07.394Z</time>
      </trkpt>
      <trkpt lat="47.547994" lon="7.913433">
        <ele>289.048370</ele>
        <time>2021-11-07T10:15:08.315Z</time>
      </trkpt>
      <trkpt lat="47.547423" lon="7.915080">
        <ele>288.773615</ele>
        <time>2021-11-07T10:15:25.803Z</time>
      </trkpt>
      <trkpt lat="47.547113" lon="7.915971">
        <ele>288.839162</ele>
        <time>2021-11-07T10:15:36.441Z</time>
      </trkpt>
      <trkpt lat="47.547091" lon="7.916039">
        <ele>288.844093</ele>
        <time>2021-11-07T10:15:37.491Z</time>
      </trkpt>
      <trkpt lat="47.547032" lon="7.916218">
        <ele>288.857119</ele>
        <time>2021-11-07T10:15:39.762Z</time>
      </trkpt>
      <trkpt lat="47.546821" lon="7.916867">
        <ele>289.077728</ele>
        <time>2021-11-07T10:15:48.177Z</time>
      </trkpt>
      <trkpt lat="47.546262" lon="7.919081">
        <ele>289.934461</ele>
        <time>2021-11-07T10:16:15.838Z</time>
      </trkpt>
      <trkpt lat="47.546128" lon="7.919617">
        <ele>290.078083</ele>
        <time>2021-11-07T10:16:21.266Z</time>
      </trkpt>
      <trkpt lat="47.545973" lon="7.920313">
        <ele>290.262239</ele>
        <time>2021-11-07T10:16:28.686Z</time>
      </trkpt>
      <trkpt lat="47.545913" lon="7.920765">
        <ele>290.377989</ele>
        <time>2021-11-07T10:16:33.444Z</time>
      </trkpt>
      <trkpt lat="47.545881" lon="7.921096">
        <ele>290.462009</ele>
        <time>2021-11-07T10:16:37.410Z</time>
      </trkpt>
      <trkpt lat="47.545810" lon="7.921755">
        <ele>291.072110</ele>
        <time>2021-11-07T10:16:46.020Z</time>
      </trkpt>
      <trkpt lat="47.545778" lon="7.921947">
        <ele>291.364945</ele>
        <time>2021-11-07T10:16:48.974Z</time>
      </trkpt>
      <trkpt lat="47.545714" lon="7.922249">
        <ele>291.833641</ele>
        <time>2021-11-07T10:16:52.828Z</time>
      </trkpt>
      <trkpt lat="47.545699" lon="7.922325">
        <ele>291.950887</ele>
        <time>2021-11-07T10:16:54.025Z</time>
      </trkpt>
      <trkpt lat="47.545690" lon="7.922369">
        <ele>292.018964</ele>
        <time>2021-11-07T10:16:55.096Z</time>
      </trkpt>
      <trkpt lat="47.545641" lon="7.922610">
        <ele>292.391653</ele>
        <time>2021-11-07T10:16:58.452Z</time>
      </trkpt>
      <trkpt lat="47.545587" lon="7.922895">
        <ele>292.829968</ele>
        <time>2021-11-07T10:17:03.284Z</time>
      </trkpt>
      <trkpt lat="47.545553" lon="7.923142">
        <ele>293.203233</ele>
        <time>2021-11-07T10:17:06.894Z</time>
      </trkpt>
      <trkpt lat="47.545536" lon="7.923407">
        <ele>293.597391</ele>
        <time>2021-11-07T10:17:11.770Z</time>
      </trkpt>
      <trkpt lat="47.545521" lon="7.923709">
        <ele>294.045777</ele>
        <time>2021-11-07T10:17:16.937Z</time>
      </trkpt>
      <trkpt lat="47.545481" lon="7.924396">
        <ele>295.474297</ele>
        <time>2021-11-07T10:17:31.540Z</time>
      </trkpt>
      <trkpt lat="47.545466" lon="7.924880">
        <ele>296.694066</ele>
        <time>2021-11-07T10:17:42.847Z</time>
      </trkpt>
      <trkpt lat="47.545446" lon="7.925350">
        <ele>297.879655</ele>
        <time>2021-11-07T10:17:53.222Z</time>
      </trkpt>
      <trkpt lat="47.545417" lon="7.925848">
        <ele>299.138044</ele>
        <time>2021-11-07T10:18:03.701Z</time>
      </trkpt>
      <trkpt lat="47.545409" lon="7.926773">
        <ele>301.243886</ele>
        <time>2021-11-07T10:18:20.902Z</time>
      </trkpt>
      <trkpt lat="47.545407" lon="7.927001">
        <ele>301.350231</ele>
        <time>2021-11-07T10:18:24.711Z</time>
      </trkpt>
      <trkpt lat="47.545406" lon="7.927306">
        <ele>301.492480</ele>
        <time>2021-11-07T10:18:29.315Z</time>
      </trkpt>
      <trkpt lat="47.545421" lon="7.927686">
        <ele>301.670009</ele>
        <time>2021-11-07T10:18:34.851Z</time>
      </trkpt>
      <trkpt lat="47.545475" lon="7.928419">
        <ele>302.013900</ele>
        <time>2021-11-07T10:18:44.168Z</time>
      </trkpt>
      <trkpt lat="47.545563" lon="7.929641">
        <ele>302.009231</ele>
        <time>2021-11-07T10:18:54.048Z</time>
      </trkpt>
      <trkpt lat="47.545661" lon="7.930955">
        <ele>300.268684</ele>
        <time>2021-11-07T10:19:03.444Z</time>
      </trkpt>
      <trkpt lat="47.545696" lon="7.931497">
        <ele>299.551827</ele>
        <time>2021-11-07T10:19:07.412Z</time>
      </trkpt>
      <trkpt lat="47.545721" lon="7.931992">
        <ele>298.923341</ele>
        <time>2021-11-07T10:19:11.205Z</time>
      </trkpt>
      <trkpt lat="47.545724" lon="7.932758">
        <ele>298.776030</ele>
        <time>2021-11-07T10:19:17.414Z</time>
      </trkpt>
      <trkpt lat="47.545702" lon="7.933290">
        <ele>298.673530</ele>
        <time>2021-11-07T10:19:22.057Z</time>
      </trkpt>
      <trkpt lat="47.545674" lon="7.933625">
        <ele>298.608615</ele>
        <time>2021-11-07T10:19:25.257Z</time>
      </trkpt>
      <trkpt lat="47.545457" lon="7.935110">
        <ele>298.914372</ele>
        <time>2021-11-07T10:19:43.392Z</time>
      </trkpt>
      <trkpt lat="47.545074" lon="7.936484">
        <ele>300.359176</ele>
        <time>2021-11-07T10:20:04.920Z</time>
      </trkpt>
      <trkpt lat="47.544903" lon="7.936917">
        <ele>300.846754</ele>
        <time>2021-11-07T10:20:12.236Z</time>
      </trkpt>
      <trkpt lat="47.544705" lon="7.937395">
        <ele>301.490154</ele>
        <time>2021-11-07T10:20:20.420Z</time>
      </trkpt>
      <trkpt lat="47.544472" lon="7.937932">
        <ele>302.268299</ele>
        <time>2021-11-07T10:20:29.827Z</time>
      </trkpt>
      <trkpt lat="47.543826" lon="7.939433">
        <ele>304.396995</ele>
        <time>2021-11-07T10:20:56.709Z</time>
      </trkpt>
      <trkpt lat="47.543435" lon="7.940670">
        <ele>305.691391</ele>
        <time>2021-11-07T10:21:16.669Z</time>
      </trkpt>
      <trkpt lat="47.543161" lon="7.942213">
        <ele>306.676964</ele>
        <time>2021-11-07T10:21:37.519Z</time>
      </trkpt>
      <trkpt lat="47.543007" lon="7.943867">
        <ele>306.300794</ele>
        <time>2021-11-07T10:21:53.063Z</time>
      </trkpt>
      <trkpt lat="47.542913" lon="7.945267">
        <ele>304.746848</ele>
        <time>2021-11-07T10:22:03.828Z</time>
      </trkpt>
      <trkpt lat="47.542872" lon="7.945781">
        <ele>303.886516</ele>
        <time>2021-11-07T10:22:07.423Z</time>
      </trkpt>
      <trkpt lat="47.542875" lon="7.946089">
        <ele>303.374495</ele>
        <time>2021-11-07T10:22:09.550Z</time>
      </trkpt>
      <trkpt lat="47.542902" lon="7.946514">
        <ele>302.664924</ele>
        <time>2021-11-07T10:22:12.418Z</time>
      </trkpt>
      <trkpt lat="47.542943" lon="7.946806">
        <ele>302.169163</ele>
        <time>2021-11-07T10:22:14.440Z</time>
      </trkpt>
      <trkpt lat="47.542974" lon="7.946965">
        <ele>301.894066</ele>
        <time>2021-11-07T10:22:15.679Z</time>
      </trkpt>
      <trkpt lat="47.542979" lon="7.946989">
        <ele>301.852315</ele>
        <time>2021-11-07T10:22:15.835Z</time>
      </trkpt>
      <trkpt lat="47.543007" lon="7.947104">
        <ele>301.685959</ele>
        <time>2021-11-07T10:22:16.702Z</time>
      </trkpt>
      <trkpt lat="47.543087" lon="7.947317">
        <ele>301.430668</ele>
        <time>2021-11-07T10:22:18.401Z</time>
      </trkpt>
      <trkpt lat="47.543191" lon="7.947615">
        <ele>301.079315</ele>
        <time>2021-11-07T10:22:20.909Z</time>
      </trkpt>
      <trkpt lat="47.543191" lon="7.947615">
        <ele>301.079315</ele>
        <time>2021-11-07T10:22:20.914Z</time>
      </trkpt>
      <trkpt lat="47.543242" lon="7.947745">
        <ele>300.921836</ele>
        <time>2021-11-07T10:22:22.044Z</time>
      </trkpt>
      <trkpt lat="47.543273" lon="7.947816">
        <ele>300.833275</ele>
        <time>2021-11-07T10:22:22.679Z</time>
      </trkpt>
      <trkpt lat="47.543358" lon="7.947967">
        <ele>300.627354</ele>
        <time>2021-11-07T10:22:24.164Z</time>
      </trkpt>
      <trkpt lat="47.543455" lon="7.948127">
        <ele>300.402118</ele>
        <time>2021-11-07T10:22:25.774Z</time>
      </trkpt>
      <trkpt lat="47.543532" lon="7.948214">
        <ele>300.251866</ele>
        <time>2021-11-07T10:22:26.869Z</time>
      </trkpt>
      <trkpt lat="47.543579" lon="7.948287">
        <ele>300.146211</ele>
        <time>2021-11-07T10:22:27.659Z</time>
      </trkpt>
      <trkpt lat="47.543760" lon="7.948548">
        <ele>299.754308</ele>
        <time>2021-11-07T10:22:30.508Z</time>
      </trkpt>
      <trkpt lat="47.543864" lon="7.948694">
        <ele>299.532004</ele>
        <time>2021-11-07T10:22:32.251Z</time>
      </trkpt>
      <trkpt lat="47.544239" lon="7.949202">
        <ele>299.020089</ele>
        <time>2021-11-07T10:22:39.447Z</time>
      </trkpt>
      <trkpt lat="47.544521" lon="7.949558">
        <ele>299.186339</ele>
        <time>2021-11-07T10:22:45.621Z</time>
      </trkpt>
      <trkpt lat="47.544901" lon="7.950044">
        <ele>299.411603</ele>
        <time>2021-11-07T10:22:54.779Z</time>
      </trkpt>
      <trkpt lat="47.545166" lon="7.950366">
        <ele>299.565394</ele>
        <time>2021-11-07T10:23:01.109Z</time>
      </trkpt>
      <trkpt lat="47.545434" lon="7.950668">
        <ele>299.716485</ele>
        <time>2021-11-07T10:23:06.893Z</time>
      </trkpt>
      <trkpt lat="47.545542" lon="7.950842">
        <ele>299.755368</ele>
        <time>2021-11-07T10:23:09.377Z</time>
      </trkpt>
      <trkpt lat="47.545667" lon="7.950979">
        <ele>299.725631</ele>
        <time>2021-11-07T10:23:11.914Z</time>
      </trkpt>
      <trkpt lat="47.545737" lon="7.951055">
        <ele>299.709034</ele>
        <time>2021-11-07T10:23:13.186Z</time>
      </trkpt>
      <trkpt lat="47.545876" lon="7.951233">
        <ele>299.673896</ele>
        <time>2021-11-07T10:23:15.929Z</time>
      </trkpt>
      <trkpt lat="47.546112" lon="7.951485">
        <ele>299.618260</ele>
        <time>2021-11-07T10:23:20.062Z</time>
      </trkpt>
      <trkpt lat="47.546164" lon="7.951520">
        <ele>299.607337</ele>
        <time>2021-11-07T10:23:20.901Z</time>
      </trkpt>
      <trkpt lat="47.546212" lon="7.951535">
        <ele>299.597955</ele>
        <time>2021-11-07T10:23:21.616Z</time>
      </trkpt>
      <trkpt lat="47.546231" lon="7.951558">
        <ele>299.593263</ele>
        <time>2021-11-07T10:23:21.933Z</time>
      </trkpt>
      <trkpt lat="47.546421" lon="7.951793">
        <ele>299.545927</ele>
        <time>2021-11-07T10:23:25.237Z</time>
      </trkpt>
      <trkpt lat="47.546634" lon="7.952024">
        <ele>299.495444</ele>
        <time>2021-11-07T10:23:28.666Z</time>
      </trkpt>
      <trkpt lat="47.546695" lon="7.952091">
        <ele>299.480921</ele>
        <time>2021-11-07T10:23:29.630Z</time>
      </trkpt>
      <trkpt lat="47.546776" lon="7.952185">
        <ele>299.461244</ele>
        <time>2021-11-07T10:23:30.980Z</time>
      </trkpt>
      <trkpt lat="47.546935" lon="7.952372">
        <ele>299.422419</ele>
        <time>2021-11-07T10:23:33.628Z</time>
      </trkpt>
      <trkpt lat="47.547090" lon="7.952543">
        <ele>299.338206</ele>
        <time>2021-11-07T10:23:36.239Z</time>
      </trkpt>
      <trkpt lat="47.547400" lon="7.952910">
        <ele>299.161869</ele>
        <time>2021-11-07T10:23:41.645Z</time>
      </trkpt>
      <trkpt lat="47.547458" lon="7.952975">
        <ele>299.129552</ele>
        <time>2021-11-07T10:23:42.633Z</time>
      </trkpt>
      <trkpt lat="47.547550" lon="7.953078">
        <ele>299.078309</ele>
        <time>2021-11-07T10:23:44.245Z</time>
      </trkpt>
      <trkpt lat="47.547624" lon="7.953160">
        <ele>299.037244</ele>
        <time>2021-11-07T10:23:45.503Z</time>
      </trkpt>
      <trkpt lat="47.547797" lon="7.953355">
        <ele>298.940647</ele>
        <time>2021-11-07T10:23:48.514Z</time>
      </trkpt>
      <trkpt lat="47.547871" lon="7.953437">
        <ele>298.899582</ele>
        <time>2021-11-07T10:23:49.808Z</time>
      </trkpt>
      <trkpt lat="47.547994" lon="7.953584">
        <ele>298.829357</ele>
        <time>2021-11-07T10:23:51.986Z</time>
      </trkpt>
      <trkpt lat="47.548115" lon="7.953729">
        <ele>298.760200</ele>
        <time>2021-11-07T10:23:54.139Z</time>
      </trkpt>
      <trkpt lat="47.548251" lon="7.953895">
        <ele>298.681896</ele>
        <time>2021-11-07T10:23:56.537Z</time>
      </trkpt>
      <trkpt lat="47.548335" lon="7.953779">
        <ele>298.630867</ele>
        <time>2021-11-07T10:23:58.444Z</time>
      </trkpt>
      <trkpt lat="47.549051" lon="7.953399">
        <ele>297.791403</ele>
        <time>2021-11-07T10:24:12.121Z</time>
      </trkpt>
      <trkpt lat="47.549296" lon="7.953268">
        <ele>297.499222</ele>
        <time>2021-11-07T10:24:16.758Z</time>
      </trkpt>
      <trkpt lat="47.549442" lon="7.953195">
        <ele>297.326370</ele>
        <time>2021-11-07T10:24:19.311Z</time>
      </trkpt>
      <trkpt lat="47.549640" lon="7.953086">
        <ele>297.089425</ele>
        <time>2021-11-07T10:24:23.023Z</time>
      </trkpt>
      <trkpt lat="47.549673" lon="7.953076">
        <ele>297.051640</ele>
        <time>2021-11-07T10:24:23.582Z</time>
      </trkpt>
      <trkpt lat="47.549687" lon="7.953071">
        <ele>297.035486</ele>
        <time>2021-11-07T10:24:23.774Z</time>
      </trkpt>
      <trkpt lat="47.550567" lon="7.953069">
        <ele>295.533789</ele>
        <time>2021-11-07T10:24:37.946Z</time>
      </trkpt>
      <trkpt lat="47.550656" lon="7.953072">
        <ele>295.341493</ele>
        <time>2021-11-07T10:24:39.261Z</time>
      </trkpt>
      <trkpt lat="47.550967" lon="7.953063">
        <ele>294.669582</ele>
        <time>2021-11-07T10:24:44.024Z</time>
      </trkpt>
      <trkpt lat="47.551254" lon="7.952986">
        <ele>294.039560</ele>
        <time>2021-11-07T10:24:48.413Z</time>
      </trkpt>
      <trkpt lat="47.551295" lon="7.952900">
        <ele>293.886056</ele>
        <time>2021-11-07T10:24:49.477Z</time>
      </trkpt>
      <trkpt lat="47.551334" lon="7.952777">
        <ele>293.687933</ele>
        <time>2021-11-07T10:24:52.152Z</time>
      </trkpt>
      <trkpt lat="47.551339" lon="7.952761">
        <ele>293.662227</ele>
        <time>2021-11-07T10:24:52.522Z</time>
      </trkpt>
      <trkpt lat="47.551381" lon="7.952341">
        <ele>293.043227</ele>
        <time>2021-11-07T10:25:01.304Z</time>
      </trkpt>
      <trkpt lat="47.551506" lon="7.950255">
        <ele>291.136495</ele>
        <time>2021-11-07T10:25:46.853Z</time>
      </trkpt>
      <trkpt lat="47.551525" lon="7.950027">
        <ele>290.942269</ele>
        <time>2021-11-07T10:25:52.086Z</time>
      </trkpt>
      <trkpt lat="47.551581" lon="7.949830">
        <ele>290.761546</ele>
        <time>2021-11-07T10:25:57.318Z</time>
      </trkpt>
      <trkpt lat="47.551673" lon="7.949634">
        <ele>290.559704</ele>
        <time>2021-11-07T10:26:03.204Z</time>
      </trkpt>
      <trkpt lat="47.551794" lon="7.949387">
        <ele>290.530395</ele>
        <time>2021-11-07T10:26:10.946Z</time>
      </trkpt>
      <trkpt lat="47.552010" lon="7.949039">
        <ele>290.687145</ele>
        <time>2021-11-07T10:26:23.001Z</time>
      </trkpt>
      <trkpt lat="47.552049" lon="7.948982">
        <ele>290.714056</ele>
        <time>2021-11-07T10:26:25.175Z</time>
      </trkpt>
      <trkpt lat="47.552094" lon="7.948926">
        <ele>290.742924</ele>
        <time>2021-11-07T10:26:27.289Z</time>
      </trkpt>
      <trkpt lat="47.552202" lon="7.949003">
        <ele>290.801799</ele>
        <time>2021-11-07T10:26:32.101Z</time>
      </trkpt>
      <trkpt lat="47.552351" lon="7.949099">
        <ele>290.881614</ele>
        <time>2021-11-07T10:26:38.576Z</time>
      </trkpt>
      <trkpt lat="47.552382" lon="7.949119">
        <ele>290.898223</ele>
        <time>2021-11-07T10:26:40.057Z</time>
      </trkpt>
      <trkpt lat="47.552414" lon="7.949147">
        <ele>290.916479</ele>
        <time>2021-11-07T10:26:41.654Z</time>
      </trkpt>
      <trkpt lat="47.552414" lon="7.949147">
        <ele>290.916479</ele>
        <time>2021-11-07T10:26:41.668Z</time>
      </trkpt>
      <trkpt lat="47.552414" lon="7.949147">
        <ele>290.916479</ele>
        <time>2021-11-07T10:26:41.668Z</time>
      </trkpt>
      <trkpt lat="47.552886" lon="7.948846">
        <ele>291.168905</ele>
        <time>2021-11-07T10:26:51.191Z</time>
      </trkpt>
      <trkpt lat="47.552953" lon="7.948775">
        <ele>291.209369</ele>
        <time>2021-11-07T10:26:54.430Z</time>
      </trkpt>
      <trkpt lat="47.553197" lon="7.948543">
        <ele>291.352682</ele>
        <time>2021-11-07T10:27:05.961Z</time>
      </trkpt>
      <trkpt lat="47.553197" lon="7.948543">
        <ele>291.352682</ele>
        <time>2021-11-07T10:27:06.000Z</time>
      </trkpt>
      <trkpt lat="47.553197" lon="7.948543">
        <ele>291.352682</ele>
        <time>2021-11-07T10:27:06.003Z</time>
      </trkpt>
      <trkpt lat="47.553804" lon="7.947988">
        <ele>291.841387</ele>
        <time>2021-11-07T10:27:19.222Z</time>
      </trkpt>
      <trkpt lat="47.554411" lon="7.947434">
        <ele>292.329848</ele>
        <time>2021-11-07T10:27:32.434Z</time>
      </trkpt>
      <trkpt lat="47.554446" lon="7.947485">
        <ele>292.363482</ele>
        <time>2021-11-07T10:27:33.126Z</time>
      </trkpt>
      <trkpt lat="47.554475" lon="7.947529">
        <ele>292.391921</ele>
        <time>2021-11-07T10:27:33.868Z</time>
      </trkpt>
      <trkpt lat="47.554517" lon="7.947576">
        <ele>292.427983</ele>
        <time>2021-11-07T10:27:34.786Z</time>
      </trkpt>
      <trkpt lat="47.554563" lon="7.947632">
        <ele>292.468774</ele>
        <time>2021-11-07T10:27:35.940Z</time>
      </trkpt>
      <trkpt lat="47.554614" lon="7.947707">
        <ele>292.518005</ele>
        <time>2021-11-07T10:27:37.235Z</time>
      </trkpt>
      <trkpt lat="47.554731" lon="7.947945">
        <ele>292.769510</ele>
        <time>2021-11-07T10:27:40.816Z</time>
      </trkpt>
      <trkpt lat="47.554749" lon="7.947993">
        <ele>292.835427</ele>
        <time>2021-11-07T10:27:41.563Z</time>
      </trkpt>
      <trkpt lat="47.554810" lon="7.947963">
        <ele>292.949746</ele>
        <time>2021-11-07T10:27:43.101Z</time>
      </trkpt>
      <trkpt lat="47.554903" lon="7.947916">
        <ele>293.124520</ele>
        <time>2021-11-07T10:27:45.123Z</time>
      </trkpt>
      <trkpt lat="47.555286" lon="7.947750">
        <ele>293.834297</ele>
        <time>2021-11-07T10:27:53.511Z</time>
      </trkpt>
      <trkpt lat="47.555306" lon="7.947738">
        <ele>293.872676</ele>
        <time>2021-11-07T10:27:53.947Z</time>
      </trkpt>
      <trkpt lat="47.555379" lon="7.947702">
        <ele>294.009522</ele>
        <time>2021-11-07T10:27:55.526Z</time>
      </trkpt>
      <trkpt lat="47.555417" lon="7.947683">
        <ele>294.080856</ele>
        <time>2021-11-07T10:27:56.383Z</time>
      </trkpt>
      <trkpt lat="47.555582" lon="7.947589">
        <ele>294.395281</ele>
        <time>2021-11-07T10:28:00.675Z</time>
      </trkpt>
      <trkpt lat="47.555636" lon="7.947544">
        <ele>294.505477</ele>
        <time>2021-11-07T10:28:02.051Z</time>
      </trkpt>
      <trkpt lat="47.555751" lon="7.947427">
        <ele>294.753599</ele>
        <time>2021-11-07T10:28:05.193Z</time>
      </trkpt>
      <trkpt lat="47.555846" lon="7.947320">
        <ele>294.965847</ele>
        <time>2021-11-07T10:28:08.356Z</time>
      </trkpt>
      <trkpt lat="47.555912" lon="7.947254">
        <ele>295.107471</ele>
        <time>2021-11-07T10:28:10.143Z</time>
      </trkpt>
      <trkpt lat="47.556009" lon="7.947161">
        <ele>295.312969</ele>
        <time>2021-11-07T10:28:12.637Z</time>
      </trkpt>
      <trkpt lat="47.556050" lon="7.947125">
        <ele>295.397737</ele>
        <time>2021-11-07T10:28:13.735Z</time>
      </trkpt>
      <trkpt lat="47.556160" lon="7.947027">
        <ele>295.626033</ele>
        <time>2021-11-07T10:28:17.153Z</time>
      </trkpt>
      <trkpt lat="47.556716" lon="7.946585">
        <ele>297.136576</ele>
        <time>2021-11-07T10:28:31.983Z</time>
      </trkpt>
      <trkpt lat="47.556890" lon="7.946422">
        <ele>297.649708</ele>
        <time>2021-11-07T10:28:37.147Z</time>
      </trkpt>
      <trkpt lat="47.557026" lon="7.946287">
        <ele>298.057748</ele>
        <time>2021-11-07T10:28:41.039Z</time>
      </trkpt>
      <trkpt lat="47.557115" lon="7.946255">
        <ele>298.286034</ele>
        <time>2021-11-07T10:28:43.425Z</time>
      </trkpt>
      <trkpt lat="47.557303" lon="7.946078">
        <ele>298.841248</ele>
        <time>2021-11-07T10:28:48.634Z</time>
      </trkpt>
      <trkpt lat="47.557371" lon="7.946013">
        <ele>299.042958</ele>
        <time>2021-11-07T10:28:50.767Z</time>
      </trkpt>
      <trkpt lat="47.557460" lon="7.945924">
        <ele>299.310598</ele>
        <time>2021-11-07T10:28:53.464Z</time>
      </trkpt>
      <trkpt lat="47.557555" lon="7.945842">
        <ele>299.584648</ele>
        <time>2021-11-07T10:28:56.076Z</time>
      </trkpt>
      <trkpt lat="47.557631" lon="7.945782">
        <ele>299.799301</ele>
        <time>2021-11-07T10:28:58.106Z</time>
      </trkpt>
      <trkpt lat="47.557744" lon="7.945674">
        <ele>300.134481</ele>
        <time>2021-11-07T10:29:01.507Z</time>
      </trkpt>
      <trkpt lat="47.557910" lon="7.945625">
        <ele>300.841725</ele>
        <time>2021-11-07T10:29:05.895Z</time>
      </trkpt>
      <trkpt lat="47.558009" lon="7.945617">
        <ele>301.330471</ele>
        <time>2021-11-07T10:29:08.586Z</time>
      </trkpt>
      <trkpt lat="47.558102" lon="7.945615">
        <ele>301.788963</ele>
        <time>2021-11-07T10:29:11.171Z</time>
      </trkpt>
      <trkpt lat="47.558161" lon="7.945614">
        <ele>302.079822</ele>
        <time>2021-11-07T10:29:12.963Z</time>
      </trkpt>
      <trkpt lat="47.558415" lon="7.945666">
        <ele>303.343809</ele>
        <time>2021-11-07T10:29:20.778Z</time>
      </trkpt>
      <trkpt lat="47.558540" lon="7.945722">
        <ele>303.987541</ele>
        <time>2021-11-07T10:29:24.466Z</time>
      </trkpt>
      <trkpt lat="47.558608" lon="7.945765">
        <ele>304.351992</ele>
        <time>2021-11-07T10:29:27.383Z</time>
      </trkpt>
      <trkpt lat="47.558700" lon="7.945825">
        <ele>304.847486</ele>
        <time>2021-11-07T10:29:30.632Z</time>
      </trkpt>
      <trkpt lat="47.558739" lon="7.945644">
        <ele>305.479547</ele>
        <time>2021-11-07T10:29:34.864Z</time>
      </trkpt>
      <trkpt lat="47.558781" lon="7.945419">
        <ele>306.256138</ele>
        <time>2021-11-07T10:29:40.765Z</time>
      </trkpt>
      <trkpt lat="47.558967" lon="7.945068">
        <ele>307.740741</ele>
        <time>2021-11-07T10:29:52.001Z</time>
      </trkpt>
      <trkpt lat="47.559249" lon="7.944727">
        <ele>309.803341</ele>
        <time>2021-11-07T10:30:07.397Z</time>
      </trkpt>
      <trkpt lat="47.559263" lon="7.944710">
        <ele>309.951836</ele>
        <time>2021-11-07T10:30:08.972Z</time>
      </trkpt>
      <trkpt lat="47.559609" lon="7.944534">
        <ele>312.953053</ele>
        <time>2021-11-07T10:30:26.767Z</time>
      </trkpt>
      <trkpt lat="47.559774" lon="7.944500">
        <ele>314.319763</ele>
        <time>2021-11-07T10:30:34.239Z</time>
      </trkpt>
      <trkpt lat="47.559855" lon="7.944533">
        <ele>315.008956</ele>
        <time>2021-11-07T10:30:38.726Z</time>
      </trkpt>
      <trkpt lat="47.560106" lon="7.944624">
        <ele>317.128930</ele>
        <time>2021-11-07T10:30:51.455Z</time>
      </trkpt>
      <trkpt lat="47.560144" lon="7.944665">
        <ele>317.514568</ele>
        <time>2021-11-07T10:30:54.451Z</time>
      </trkpt>
      <trkpt lat="47.560288" lon="7.944850">
        <ele>319.078125</ele>
        <time>2021-11-07T10:31:04.514Z</time>
      </trkpt>
      <trkpt lat="47.560464" lon="7.945085">
        <ele>321.021728</ele>
        <time>2021-11-07T10:31:16.306Z</time>
      </trkpt>
      <trkpt lat="47.560632" lon="7.945223">
        <ele>322.597609</ele>
        <time>2021-11-07T10:31:25.054Z</time>
      </trkpt>
      <trkpt lat="47.560748" lon="7.945268">
        <ele>323.581359</ele>
        <time>2021-11-07T10:31:31.057Z</time>
      </trkpt>
      <trkpt lat="47.560884" lon="7.945275">
        <ele>324.521391</ele>
        <time>2021-11-07T10:31:37.098Z</time>
      </trkpt>
      <trkpt lat="47.561051" lon="7.945242">
        <ele>325.602780</ele>
        <time>2021-11-07T10:31:44.394Z</time>
      </trkpt>
      <trkpt lat="47.561253" lon="7.945105">
        <ele>327.028665</ele>
        <time>2021-11-07T10:31:54.428Z</time>
      </trkpt>
      <trkpt lat="47.561549" lon="7.944844">
        <ele>329.239442</ele>
        <time>2021-11-07T10:32:08.534Z</time>
      </trkpt>
      <trkpt lat="47.561590" lon="7.944808">
        <ele>329.545328</ele>
        <time>2021-11-07T10:32:10.007Z</time>
      </trkpt>
      <trkpt lat="47.561884" lon="7.944575">
        <ele>331.685287</ele>
        <time>2021-11-07T10:32:24.257Z</time>
      </trkpt>
      <trkpt lat="47.562104" lon="7.944442">
        <ele>333.210350</ele>
        <time>2021-11-07T10:32:33.291Z</time>
      </trkpt>
      <trkpt lat="47.562431" lon="7.944285">
        <ele>335.416626</ele>
        <time>2021-11-07T10:32:46.601Z</time>
      </trkpt>
      <trkpt lat="47.562993" lon="7.944148">
        <ele>336.929822</ele>
        <time>2021-11-07T10:33:03.826Z</time>
      </trkpt>
      <trkpt lat="47.563121" lon="7.944175">
        <ele>337.271270</ele>
        <time>2021-11-07T10:33:06.444Z</time>
      </trkpt>
      <trkpt lat="47.563250" lon="7.944210">
        <ele>337.617613</ele>
        <time>2021-11-07T10:33:10.427Z</time>
      </trkpt>
      <trkpt lat="47.563376" lon="7.944323">
        <ele>338.006558</ele>
        <time>2021-11-07T10:33:12.402Z</time>
      </trkpt>
      <trkpt lat="47.563617" lon="7.944825">
        <ele>339.104449</ele>
        <time>2021-11-07T10:33:20.220Z</time>
      </trkpt>
      <trkpt lat="47.563643" lon="7.944887">
        <ele>339.234533</ele>
        <time>2021-11-07T10:33:22.864Z</time>
      </trkpt>
      <trkpt lat="47.563685" lon="7.944852">
        <ele>339.361786</ele>
        <time>2021-11-07T10:33:23.765Z</time>
      </trkpt>
      <trkpt lat="47.563821" lon="7.944614">
        <ele>339.917556</ele>
        <time>2021-11-07T10:33:26.998Z</time>
      </trkpt>
      <trkpt lat="47.563801" lon="7.944401">
        <ele>340.324407</ele>
        <time>2021-11-07T10:33:31.134Z</time>
      </trkpt>
      <trkpt lat="47.563689" lon="7.944279">
        <ele>340.764560</ele>
        <time>2021-11-07T10:33:35.007Z</time>
      </trkpt>
      <trkpt lat="47.563649" lon="7.944253">
        <ele>340.902871</ele>
        <time>2021-11-07T10:33:35.516Z</time>
      </trkpt>
      <trkpt lat="47.563594" lon="7.944220">
        <ele>341.090764</ele>
        <time>2021-11-07T10:33:36.203Z</time>
      </trkpt>
      <trkpt lat="47.563429" lon="7.944021">
        <ele>341.764405</ele>
        <time>2021-11-07T10:33:42.487Z</time>
      </trkpt>
      <trkpt lat="47.563413" lon="7.943822">
        <ele>342.192620</ele>
        <time>2021-11-07T10:33:44.806Z</time>
      </trkpt>
      <trkpt lat="47.563464" lon="7.943662">
        <ele>342.570720</ele>
        <time>2021-11-07T10:33:48.157Z</time>
      </trkpt>
      <trkpt lat="47.563511" lon="7.943574">
        <ele>342.810523</ele>
        <time>2021-11-07T10:33:48.998Z</time>
      </trkpt>
      <trkpt lat="47.563601" lon="7.943496">
        <ele>343.140670</ele>
        <time>2021-11-07T10:33:51.744Z</time>
      </trkpt>
      <trkpt lat="47.563719" lon="7.943365">
        <ele>343.607540</ele>
        <time>2021-11-07T10:33:55.531Z</time>
      </trkpt>
      <trkpt lat="47.563845" lon="7.943225">
        <ele>344.106214</ele>
        <time>2021-11-07T10:33:59.265Z</time>
      </trkpt>
      <trkpt lat="47.564097" lon="7.942881">
        <ele>345.191123</ele>
        <time>2021-11-07T10:34:09.682Z</time>
      </trkpt>
      <trkpt lat="47.564121" lon="7.942841">
        <ele>345.305493</ele>
        <time>2021-11-07T10:34:11.769Z</time>
      </trkpt>
      <trkpt lat="47.564135" lon="7.942819">
        <ele>345.370107</ele>
        <time>2021-11-07T10:34:12.135Z</time>
      </trkpt>
      <trkpt lat="47.564264" lon="7.942637">
        <ele>346.012588</ele>
        <time>2021-11-07T10:34:18.753Z</time>
      </trkpt>
      <trkpt lat="47.564507" lon="7.942214">
        <ele>348.849519</ele>
        <time>2021-11-07T10:34:34.525Z</time>
      </trkpt>
      <trkpt lat="47.564693" lon="7.942033">
        <ele>350.533518</ele>
        <time>2021-11-07T10:34:43.752Z</time>
      </trkpt>
      <trkpt lat="47.564814" lon="7.941979">
        <ele>351.489875</ele>
        <time>2021-11-07T10:34:50.689Z</time>
      </trkpt>
      <trkpt lat="47.564898" lon="7.941972">
        <ele>352.126599</ele>
        <time>2021-11-07T10:34:54.743Z</time>
      </trkpt>
      <trkpt lat="47.565002" lon="7.941980">
        <ele>352.914739</ele>
        <time>2021-11-07T10:35:00.020Z</time>
      </trkpt>
      <trkpt lat="47.565144" lon="7.942041">
        <ele>354.033643</ele>
        <time>2021-11-07T10:35:08.551Z</time>
      </trkpt>
      <trkpt lat="47.565593" lon="7.942200">
        <ele>357.527372</ele>
        <time>2021-11-07T10:35:30.507Z</time>
      </trkpt>
      <trkpt lat="47.566242" lon="7.941972">
        <ele>361.374526</ele>
        <time>2021-11-07T10:36:01.676Z</time>
      </trkpt>
      <trkpt lat="47.566527" lon="7.941959">
        <ele>362.692681</ele>
        <time>2021-11-07T10:36:13.908Z</time>
      </trkpt>
      <trkpt lat="47.567279" lon="7.942328">
        <ele>366.354699</ele>
        <time>2021-11-07T10:36:33.723Z</time>
      </trkpt>
      <trkpt lat="47.567412" lon="7.942343">
        <ele>366.971324</ele>
        <time>2021-11-07T10:36:38.073Z</time>
      </trkpt>
      <trkpt lat="47.567471" lon="7.942315">
        <ele>367.257718</ele>
        <time>2021-11-07T10:36:39.487Z</time>
      </trkpt>
      <trkpt lat="47.567523" lon="7.942285">
        <ele>367.515681</ele>
        <time>2021-11-07T10:36:40.569Z</time>
      </trkpt>
      <trkpt lat="47.567949" lon="7.942100">
        <ele>368.590118</ele>
        <time>2021-11-07T10:36:51.974Z</time>
      </trkpt>
      <trkpt lat="47.568118" lon="7.941960">
        <ele>368.988765</ele>
        <time>2021-11-07T10:36:56.604Z</time>
      </trkpt>
      <trkpt lat="47.568200" lon="7.941896">
        <ele>369.179587</ele>
        <time>2021-11-07T10:36:58.326Z</time>
      </trkpt>
      <trkpt lat="47.568271" lon="7.941748">
        <ele>369.431874</ele>
        <time>2021-11-07T10:37:01.180Z</time>
      </trkpt>
      <trkpt lat="47.568317" lon="7.941562">
        <ele>369.707089</ele>
        <time>2021-11-07T10:37:04.370Z</time>
      </trkpt>
      <trkpt lat="47.568379" lon="7.941267">
        <ele>370.136344</ele>
        <time>2021-11-07T10:37:08.260Z</time>
      </trkpt>
      <trkpt lat="47.568448" lon="7.941044">
        <ele>370.477173</ele>
        <time>2021-11-07T10:37:12.075Z</time>
      </trkpt>
      <trkpt lat="47.568494" lon="7.940909">
        <ele>370.687282</ele>
        <time>2021-11-07T10:37:13.863Z</time>
      </trkpt>
      <trkpt lat="47.568520" lon="7.940846">
        <ele>370.789880</ele>
        <time>2021-11-07T10:37:14.978Z</time>
      </trkpt>
      <trkpt lat="47.568598" lon="7.940707">
        <ele>371.041047</ele>
        <time>2021-11-07T10:37:17.122Z</time>
      </trkpt>
      <trkpt lat="47.569027" lon="7.940428">
        <ele>372.805766</ele>
        <time>2021-11-07T10:37:27.099Z</time>
      </trkpt>
      <trkpt lat="47.569418" lon="7.940363">
        <ele>374.919369</ele>
        <time>2021-11-07T10:37:38.149Z</time>
      </trkpt>
      <trkpt lat="47.570390" lon="7.940352">
        <ele>380.141057</ele>
        <time>2021-11-07T10:38:19.594Z</time>
      </trkpt>
      <trkpt lat="47.570745" lon="7.940187">
        <ele>382.403531</ele>
        <time>2021-11-07T10:38:36.061Z</time>
      </trkpt>
      <trkpt lat="47.570849" lon="7.940098">
        <ele>383.224309</ele>
        <time>2021-11-07T10:38:42.096Z</time>
      </trkpt>
      <trkpt lat="47.570920" lon="7.939991">
        <ele>383.916353</ele>
        <time>2021-11-07T10:38:48.019Z</time>
      </trkpt>
      <trkpt lat="47.570985" lon="7.939855">
        <ele>384.684890</ele>
        <time>2021-11-07T10:38:52.108Z</time>
      </trkpt>
      <trkpt lat="47.570986" lon="7.939853">
        <ele>384.696369</ele>
        <time>2021-11-07T10:38:52.227Z</time>
      </trkpt>
      <trkpt lat="47.571121" lon="7.939531">
        <ele>386.444511</ele>
        <time>2021-11-07T10:39:03.143Z</time>
      </trkpt>
      <trkpt lat="47.571321" lon="7.939067">
        <ele>388.983483</ele>
        <time>2021-11-07T10:39:18.571Z</time>
      </trkpt>
      <trkpt lat="47.571484" lon="7.938770">
        <ele>390.748902</ele>
        <time>2021-11-07T10:39:28.640Z</time>
      </trkpt>
      <trkpt lat="47.571744" lon="7.938297">
        <ele>393.507684</ele>
        <time>2021-11-07T10:39:46.909Z</time>
      </trkpt>
      <trkpt lat="47.571792" lon="7.938168">
        <ele>393.810452</ele>
        <time>2021-11-07T10:39:51.596Z</time>
      </trkpt>
      <trkpt lat="47.571814" lon="7.938108">
        <ele>393.950798</ele>
        <time>2021-11-07T10:39:53.253Z</time>
      </trkpt>
      <trkpt lat="47.571814" lon="7.938108">
        <ele>393.950798</ele>
        <time>2021-11-07T10:39:53.255Z</time>
      </trkpt>
      <trkpt lat="47.571837" lon="7.938094">
        <ele>394.026539</ele>
        <time>2021-11-07T10:39:53.496Z</time>
      </trkpt>
      <trkpt lat="47.571892" lon="7.938121">
        <ele>394.203032</ele>
        <time>2021-11-07T10:39:55.672Z</time>
      </trkpt>
      <trkpt lat="47.572087" lon="7.938259">
        <ele>394.861282</ele>
        <time>2021-11-07T10:40:03.550Z</time>
      </trkpt>
      <trkpt lat="47.572311" lon="7.938464">
        <ele>395.663225</ele>
        <time>2021-11-07T10:40:11.250Z</time>
      </trkpt>
      <trkpt lat="47.572457" lon="7.938598">
        <ele>396.186334</ele>
        <time>2021-11-07T10:40:16.402Z</time>
      </trkpt>
      <trkpt lat="47.572641" lon="7.938605">
        <ele>396.747026</ele>
        <time>2021-11-07T10:40:19.359Z</time>
      </trkpt>
      <trkpt lat="47.572709" lon="7.938608">
        <ele>396.954262</ele>
        <time>2021-11-07T10:40:20.858Z</time>
      </trkpt>
      <trkpt lat="47.572910" lon="7.938451">
        <ele>397.646368</ele>
        <time>2021-11-07T10:40:25.029Z</time>
      </trkpt>
      <trkpt lat="47.572974" lon="7.938301">
        <ele>398.011115</ele>
        <time>2021-11-07T10:40:26.873Z</time>
      </trkpt>
      <trkpt lat="47.573038" lon="7.938150">
        <ele>398.377601</ele>
        <time>2021-11-07T10:40:29.587Z</time>
      </trkpt>
      <trkpt lat="47.573078" lon="7.937709">
        <ele>399.334110</ele>
        <time>2021-11-07T10:40:33.967Z</time>
      </trkpt>
      <trkpt lat="47.573072" lon="7.937669">
        <ele>399.428462</ele>
        <time>2021-11-07T10:40:35.175Z</time>
      </trkpt>
      <trkpt lat="47.573036" lon="7.937429">
        <ele>399.994572</ele>
        <time>2021-11-07T10:40:38.661Z</time>
      </trkpt>
      <trkpt lat="47.573024" lon="7.937357">
        <ele>400.165341</ele>
        <time>2021-11-07T10:40:39.542Z</time>
      </trkpt>
      <trkpt lat="47.573010" lon="7.937121">
        <ele>400.710844</ele>
        <time>2021-11-07T10:40:44.336Z</time>
      </trkpt>
      <trkpt lat="47.573010" lon="7.936978">
        <ele>401.040112</ele>
        <time>2021-11-07T10:40:46.337Z</time>
      </trkpt>
      <trkpt lat="47.573124" lon="7.936542">
        <ele>402.116790</ele>
        <time>2021-11-07T10:40:55.177Z</time>
      </trkpt>
      <trkpt lat="47.573179" lon="7.936342">
        <ele>402.614092</ele>
        <time>2021-11-07T10:40:59.369Z</time>
      </trkpt>
      <trkpt lat="47.573277" lon="7.936016">
        <ele>403.435872</ele>
        <time>2021-11-07T10:41:07.273Z</time>
      </trkpt>
      <trkpt lat="47.573388" lon="7.935781">
        <ele>404.096410</ele>
        <time>2021-11-07T10:41:13.019Z</time>
      </trkpt>
      <trkpt lat="47.573432" lon="7.935767">
        <ele>404.250003</ele>
        <time>2021-11-07T10:41:15.160Z</time>
      </trkpt>
      <trkpt lat="47.573597" lon="7.935752">
        <ele>404.814203</ele>
        <time>2021-11-07T10:41:21.034Z</time>
      </trkpt>
      <trkpt lat="47.573935" lon="7.935634">
        <ele>407.304784</ele>
        <time>2021-11-07T10:41:33.093Z</time>
      </trkpt>
      <trkpt lat="47.574115" lon="7.935550">
        <ele>408.865012</ele>
        <time>2021-11-07T10:41:40.679Z</time>
      </trkpt>
      <trkpt lat="47.574365" lon="7.935391">
        <ele>411.114208</ele>
        <time>2021-11-07T10:41:52.615Z</time>
      </trkpt>
      <trkpt lat="47.574919" lon="7.934783">
        <ele>416.813394</ele>
        <time>2021-11-07T10:42:28.951Z</time>
      </trkpt>
      <trkpt lat="47.575144" lon="7.934641">
        <ele>418.835255</ele>
        <time>2021-11-07T10:42:42.664Z</time>
      </trkpt>
      <trkpt lat="47.576460" lon="7.934694">
        <ele>432.146273</ele>
        <time>2021-11-07T10:43:58.162Z</time>
      </trkpt>
      <trkpt lat="47.577613" lon="7.934227">
        <ele>442.016290</ele>
        <time>2021-11-07T10:45:04.412Z</time>
      </trkpt>
      <trkpt lat="47.578335" lon="7.934175">
        <ele>446.391604</ele>
        <time>2021-11-07T10:45:32.305Z</time>
      </trkpt>
      <trkpt lat="47.578634" lon="7.934108">
        <ele>448.221967</ele>
        <time>2021-11-07T10:45:41.277Z</time>
      </trkpt>
      <trkpt lat="47.578958" lon="7.933883">
        <ele>448.991609</ele>
        <time>2021-11-07T10:45:48.760Z</time>
      </trkpt>
      <trkpt lat="47.579132" lon="7.933628">
        <ele>448.368844</ele>
        <time>2021-11-07T10:45:52.031Z</time>
      </trkpt>
      <trkpt lat="47.579242" lon="7.933285">
        <ele>447.716757</ele>
        <time>2021-11-07T10:45:55.090Z</time>
      </trkpt>
      <trkpt lat="47.579658" lon="7.932985">
        <ele>446.539279</ele>
        <time>2021-11-07T10:45:59.761Z</time>
      </trkpt>
      <trkpt lat="47.579800" lon="7.932767">
        <ele>446.018962</ele>
        <time>2021-11-07T10:46:01.660Z</time>
      </trkpt>
      <trkpt lat="47.579974" lon="7.931980">
        <ele>444.463789</ele>
        <time>2021-11-07T10:46:06.794Z</time>
      </trkpt>
      <trkpt lat="47.580010" lon="7.931498">
        <ele>443.148555</ele>
        <time>2021-11-07T10:46:09.974Z</time>
      </trkpt>
      <trkpt lat="47.580072" lon="7.931374">
        <ele>442.729939</ele>
        <time>2021-11-07T10:46:10.980Z</time>
      </trkpt>
      <trkpt lat="47.579993" lon="7.931259">
        <ele>442.284782</ele>
        <time>2021-11-07T10:46:12.005Z</time>
      </trkpt>
      <trkpt lat="47.579994" lon="7.931052">
        <ele>441.723357</ele>
        <time>2021-11-07T10:46:13.465Z</time>
      </trkpt>
      <trkpt lat="47.580006" lon="7.930973">
        <ele>441.503734</ele>
        <time>2021-11-07T10:46:13.936Z</time>
      </trkpt>
      <trkpt lat="47.580023" lon="7.930898">
        <ele>441.289148</ele>
        <time>2021-11-07T10:46:15.161Z</time>
      </trkpt>
      <trkpt lat="47.580257" lon="7.930531">
        <ele>439.919529</ele>
        <time>2021-11-07T10:46:18.494Z</time>
      </trkpt>
      <trkpt lat="47.580447" lon="7.930346">
        <ele>439.005579</ele>
        <time>2021-11-07T10:46:20.817Z</time>
      </trkpt>
      <trkpt lat="47.580995" lon="7.929985">
        <ele>436.285993</ele>
        <time>2021-11-07T10:46:26.803Z</time>
      </trkpt>
      <trkpt lat="47.581097" lon="7.929860">
        <ele>435.589838</ele>
        <time>2021-11-07T10:46:28.205Z</time>
      </trkpt>
      <trkpt lat="47.581284" lon="7.929390">
        <ele>433.653605</ele>
        <time>2021-11-07T10:46:32.185Z</time>
      </trkpt>
      <trkpt lat="47.581405" lon="7.929209">
        <ele>432.749375</ele>
        <time>2021-11-07T10:46:33.762Z</time>
      </trkpt>
      <trkpt lat="47.581847" lon="7.929069">
        <ele>430.371803</ele>
        <time>2021-11-07T10:46:37.904Z</time>
      </trkpt>
      <trkpt lat="47.582473" lon="7.929048">
        <ele>426.259366</ele>
        <time>2021-11-07T10:46:43.459Z</time>
      </trkpt>
      <trkpt lat="47.582622" lon="7.928957">
        <ele>424.754340</ele>
        <time>2021-11-07T10:46:44.880Z</time>
      </trkpt>
      <trkpt lat="47.582695" lon="7.928831">
        <ele>423.707981</ele>
        <time>2021-11-07T10:46:45.863Z</time>
      </trkpt>
      <trkpt lat="47.582659" lon="7.928638">
        <ele>422.446516</ele>
        <time>2021-11-07T10:46:47.008Z</time>
      </trkpt>
      <trkpt lat="47.582273" lon="7.928381">
        <ele>418.494646</ele>
        <time>2021-11-07T10:46:50.666Z</time>
      </trkpt>
      <trkpt lat="47.582118" lon="7.928218">
        <ele>416.719826</ele>
        <time>2021-11-07T10:46:52.304Z</time>
      </trkpt>
      <trkpt lat="47.581992" lon="7.927950">
        <ele>414.661860</ele>
        <time>2021-11-07T10:46:54.193Z</time>
      </trkpt>
      <trkpt lat="47.581995" lon="7.926846">
        <ele>408.768808</ele>
        <time>2021-11-07T10:47:00.584Z</time>
      </trkpt>
      <trkpt lat="47.581800" lon="7.926344">
        <ele>406.187456</ele>
        <time>2021-11-07T10:47:04.090Z</time>
      </trkpt>
      <trkpt lat="47.581805" lon="7.926181">
        <ele>405.460364</ele>
        <time>2021-11-07T10:47:05.094Z</time>
      </trkpt>
      <trkpt lat="47.581876" lon="7.926030">
        <ele>404.640154</ele>
        <time>2021-11-07T10:47:06.235Z</time>
      </trkpt>
      <trkpt lat="47.582115" lon="7.925927">
        <ele>402.995930</ele>
        <time>2021-11-07T10:47:08.566Z</time>
      </trkpt>
      <trkpt lat="47.582530" lon="7.925958">
        <ele>400.250908</ele>
        <time>2021-11-07T10:47:12.565Z</time>
      </trkpt>
      <trkpt lat="47.583414" lon="7.926287">
        <ele>395.216782</ele>
        <time>2021-11-07T10:47:21.546Z</time>
      </trkpt>
      <trkpt lat="47.583852" lon="7.926374">
        <ele>392.849011</ele>
        <time>2021-11-07T10:47:25.737Z</time>
      </trkpt>
      <trkpt lat="47.583992" lon="7.926334">
        <ele>392.085089</ele>
        <time>2021-11-07T10:47:27.058Z</time>
      </trkpt>
      <trkpt lat="47.584034" lon="7.926155">
        <ele>391.400157</ele>
        <time>2021-11-07T10:47:28.233Z</time>
      </trkpt>
      <trkpt lat="47.583971" lon="7.926018">
        <ele>390.800919</ele>
        <time>2021-11-07T10:47:29.250Z</time>
      </trkpt>
      <trkpt lat="47.583566" lon="7.925993">
        <ele>387.261154</ele>
        <time>2021-11-07T10:47:32.837Z</time>
      </trkpt>
      <trkpt lat="47.583411" lon="7.925756">
        <ele>384.693426</ele>
        <time>2021-11-07T10:47:34.764Z</time>
      </trkpt>
      <trkpt lat="47.583137" lon="7.924549">
        <ele>374.787503</ele>
        <time>2021-11-07T10:47:42.021Z</time>
      </trkpt>
      <trkpt lat="47.582665" lon="7.923021">
        <ele>361.502210</ele>
        <time>2021-11-07T10:47:51.478Z</time>
      </trkpt>
      <trkpt lat="47.582576" lon="7.922638">
        <ele>358.260109</ele>
        <time>2021-11-07T10:47:53.759Z</time>
      </trkpt>
      <trkpt lat="47.582488" lon="7.920818">
        <ele>345.764928</ele>
        <time>2021-11-07T10:48:04.362Z</time>
      </trkpt>
      <trkpt lat="47.582514" lon="7.920438">
        <ele>344.288924</ele>
        <time>2021-11-07T10:48:06.684Z</time>
      </trkpt>
      <trkpt lat="47.582597" lon="7.920223">
        <ele>343.331630</ele>
        <time>2021-11-07T10:48:08.211Z</time>
      </trkpt>
      <trkpt lat="47.582817" lon="7.920201">
        <ele>342.068379</ele>
        <time>2021-11-07T10:48:10.302Z</time>
      </trkpt>
      <trkpt lat="47.582910" lon="7.920248">
        <ele>341.505472</ele>
        <time>2021-11-07T10:48:11.244Z</time>
      </trkpt>
      <trkpt lat="47.583166" lon="7.920334">
        <ele>340.001658</ele>
        <time>2021-11-07T10:48:13.771Z</time>
      </trkpt>
      <trkpt lat="47.583279" lon="7.920234">
        <ele>339.247713</ele>
        <time>2021-11-07T10:48:15.052Z</time>
      </trkpt>
      <trkpt lat="47.583623" lon="7.919916">
        <ele>337.230188</ele>
        <time>2021-11-07T10:48:19.234Z</time>
      </trkpt>
      <trkpt lat="47.583975" lon="7.919617">
        <ele>336.313160</ele>
        <time>2021-11-07T10:48:23.782Z</time>
      </trkpt>
      <trkpt lat="47.584708" lon="7.919278">
        <ele>334.577499</ele>
        <time>2021-11-07T10:48:32.200Z</time>
      </trkpt>
      <trkpt lat="47.585010" lon="7.918940">
        <ele>333.722165</ele>
        <time>2021-11-07T10:48:36.165Z</time>
      </trkpt>
      <trkpt lat="47.585624" lon="7.918060">
        <ele>332.361725</ele>
        <time>2021-11-07T10:48:45.540Z</time>
      </trkpt>
      <trkpt lat="47.585929" lon="7.917570">
        <ele>331.713860</ele>
        <time>2021-11-07T10:48:50.747Z</time>
      </trkpt>
      <trkpt lat="47.586029" lon="7.917411">
        <ele>331.502625</ele>
        <time>2021-11-07T10:48:52.444Z</time>
      </trkpt>
      <trkpt lat="47.586246" lon="7.917094">
        <ele>331.063771</ele>
        <time>2021-11-07T10:48:56.218Z</time>
      </trkpt>
      <trkpt lat="47.586364" lon="7.917048">
        <ele>330.888005</ele>
        <time>2021-11-07T10:48:57.857Z</time>
      </trkpt>
      <trkpt lat="47.587522" lon="7.917098">
        <ele>330.628622</ele>
        <time>2021-11-07T10:49:13.688Z</time>
      </trkpt>
      <trkpt lat="47.587965" lon="7.917099">
        <ele>330.569657</ele>
        <time>2021-11-07T10:49:20.832Z</time>
      </trkpt>
      <trkpt lat="47.588625" lon="7.917131">
        <ele>330.184346</ele>
        <time>2021-11-07T10:49:31.548Z</time>
      </trkpt>
      <trkpt lat="47.588687" lon="7.917138">
        <ele>330.127753</ele>
        <time>2021-11-07T10:49:32.485Z</time>
      </trkpt>
      <trkpt lat="47.589219" lon="7.917013">
        <ele>329.637512</ele>
        <time>2021-11-07T10:49:40.840Z</time>
      </trkpt>
      <trkpt lat="47.589612" lon="7.916997">
        <ele>329.279688</ele>
        <time>2021-11-07T10:49:45.677Z</time>
      </trkpt>
      <trkpt lat="47.590043" lon="7.917014">
        <ele>328.847701</ele>
        <time>2021-11-07T10:49:50.276Z</time>
      </trkpt>
      <trkpt lat="47.590258" lon="7.917024">
        <ele>327.729380</ele>
        <time>2021-11-07T10:49:52.410Z</time>
      </trkpt>
      <trkpt lat="47.590496" lon="7.917018">
        <ele>326.491853</ele>
        <time>2021-11-07T10:49:54.687Z</time>
      </trkpt>
      <trkpt lat="47.590600" lon="7.916970">
        <ele>325.925575</ele>
        <time>2021-11-07T10:49:55.732Z</time>
      </trkpt>
      <trkpt lat="47.590677" lon="7.916856">
        <ele>325.359865</ele>
        <time>2021-11-07T10:49:56.762Z</time>
      </trkpt>
      <trkpt lat="47.590714" lon="7.916644">
        <ele>324.592047</ele>
        <time>2021-11-07T10:49:58.118Z</time>
      </trkpt>
      <trkpt lat="47.590824" lon="7.916070">
        <ele>322.499771</ele>
        <time>2021-11-07T10:50:01.813Z</time>
      </trkpt>
      <trkpt lat="47.590960" lon="7.915508">
        <ele>320.406237</ele>
        <time>2021-11-07T10:50:05.459Z</time>
      </trkpt>
      <trkpt lat="47.590991" lon="7.915424">
        <ele>320.070498</ele>
        <time>2021-11-07T10:50:06.064Z</time>
      </trkpt>
      <trkpt lat="47.591214" lon="7.914833">
        <ele>317.949755</ele>
        <time>2021-11-07T10:50:10.202Z</time>
      </trkpt>
      <trkpt lat="47.591443" lon="7.914358">
        <ele>316.183505</ele>
        <time>2021-11-07T10:50:13.818Z</time>
      </trkpt>
      <trkpt lat="47.591643" lon="7.914131">
        <ele>315.053790</ele>
        <time>2021-11-07T10:50:16.199Z</time>
      </trkpt>
      <trkpt lat="47.591782" lon="7.913893">
        <ele>314.101410</ele>
        <time>2021-11-07T10:50:18.199Z</time>
      </trkpt>
      <trkpt lat="47.591858" lon="7.913783">
        <ele>313.625044</ele>
        <time>2021-11-07T10:50:19.231Z</time>
      </trkpt>
      <trkpt lat="47.591858" lon="7.913783">
        <ele>313.625044</ele>
        <time>2021-11-07T10:50:19.273Z</time>
      </trkpt>
      <trkpt lat="47.591953" lon="7.913843">
        <ele>313.161890</ele>
        <time>2021-11-07T10:50:20.313Z</time>
      </trkpt>
      <trkpt lat="47.592496" lon="7.914014">
        <ele>311.622389</ele>
        <time>2021-11-07T10:50:26.335Z</time>
      </trkpt>
      <trkpt lat="47.592589" lon="7.914035">
        <ele>311.698558</ele>
        <time>2021-11-07T10:50:28.119Z</time>
      </trkpt>
      <trkpt lat="47.592672" lon="7.914009">
        <ele>311.767244</ele>
        <time>2021-11-07T10:50:29.240Z</time>
      </trkpt>
      <trkpt lat="47.592807" lon="7.913929">
        <ele>311.884957</ele>
        <time>2021-11-07T10:50:31.052Z</time>
      </trkpt>
      <trkpt lat="47.593189" lon="7.913725">
        <ele>312.213703</ele>
        <time>2021-11-07T10:50:38.331Z</time>
      </trkpt>
      <trkpt lat="47.593511" lon="7.913649">
        <ele>312.477703</ele>
        <time>2021-11-07T10:50:45.781Z</time>
      </trkpt>
      <trkpt lat="47.593654" lon="7.913672">
        <ele>312.594167</ele>
        <time>2021-11-07T10:50:49.572Z</time>
      </trkpt>
      <trkpt lat="47.594163" lon="7.913924">
        <ele>313.175654</ele>
        <time>2021-11-07T10:51:02.658Z</time>
      </trkpt>
      <trkpt lat="47.594319" lon="7.913951">
        <ele>313.499042</ele>
        <time>2021-11-07T10:51:06.654Z</time>
      </trkpt>
      <trkpt lat="47.594719" lon="7.914022">
        <ele>314.328531</ele>
        <time>2021-11-07T10:51:16.558Z</time>
      </trkpt>
      <trkpt lat="47.594871" lon="7.914141">
        <ele>314.682444</ele>
        <time>2021-11-07T10:51:20.485Z</time>
      </trkpt>
      <trkpt lat="47.595031" lon="7.914316">
        <ele>315.091808</ele>
        <time>2021-11-07T10:51:25.404Z</time>
      </trkpt>
      <trkpt lat="47.595292" lon="7.914664">
        <ele>315.814508</ele>
        <time>2021-11-07T10:51:33.035Z</time>
      </trkpt>
      <trkpt lat="47.595476" lon="7.914889">
        <ele>316.305568</ele>
        <time>2021-11-07T10:51:38.110Z</time>
      </trkpt>
      <trkpt lat="47.595688" lon="7.915084">
        <ele>316.729696</ele>
        <time>2021-11-07T10:51:43.508Z</time>
      </trkpt>
      <trkpt lat="47.595861" lon="7.915155">
        <ele>316.917854</ele>
        <time>2021-11-07T10:51:46.965Z</time>
      </trkpt>
      <trkpt lat="47.595909" lon="7.915188">
        <ele>316.973313</ele>
        <time>2021-11-07T10:51:48.030Z</time>
      </trkpt>
      <trkpt lat="47.595949" lon="7.915202">
        <ele>317.016394</ele>
        <time>2021-11-07T10:51:48.962Z</time>
      </trkpt>
      <trkpt lat="47.596117" lon="7.915243">
        <ele>317.194863</ele>
        <time>2021-11-07T10:51:52.558Z</time>
      </trkpt>
      <trkpt lat="47.596349" lon="7.915301">
        <ele>317.441481</ele>
        <time>2021-11-07T10:51:56.988Z</time>
      </trkpt>
      <trkpt lat="47.596736" lon="7.915598">
        <ele>317.898245</ele>
        <time>2021-11-07T10:52:04.826Z</time>
      </trkpt>
      <trkpt lat="47.596850" lon="7.915674">
        <ele>318.029262</ele>
        <time>2021-11-07T10:52:06.815Z</time>
      </trkpt>
      <trkpt lat="47.597083" lon="7.915733">
        <ele>318.277031</ele>
        <time>2021-11-07T10:52:10.947Z</time>
      </trkpt>
      <trkpt lat="47.597656" lon="7.915778">
        <ele>318.914028</ele>
        <time>2021-11-07T10:52:21.121Z</time>
      </trkpt>
      <trkpt lat="47.599120" lon="7.915596">
        <ele>320.602601</ele>
        <time>2021-11-07T10:52:51.092Z</time>
      </trkpt>
      <trkpt lat="47.599374" lon="7.915625">
        <ele>320.774885</ele>
        <time>2021-11-07T10:52:55.804Z</time>
      </trkpt>
      <trkpt lat="47.599906" lon="7.915798">
        <ele>321.143215</ele>
        <time>2021-11-07T10:53:05.631Z</time>
      </trkpt>
      <trkpt lat="47.600078" lon="7.915859">
        <ele>321.262815</ele>
        <time>2021-11-07T10:53:08.694Z</time>
      </trkpt>
      <trkpt lat="47.600344" lon="7.915900">
        <ele>321.443675</ele>
        <time>2021-11-07T10:53:13.185Z</time>
      </trkpt>
      <trkpt lat="47.600545" lon="7.915898">
        <ele>321.579611</ele>
        <time>2021-11-07T10:53:16.650Z</time>
      </trkpt>
      <trkpt lat="47.600689" lon="7.915853">
        <ele>321.679134</ele>
        <time>2021-11-07T10:53:18.979Z</time>
      </trkpt>
      <trkpt lat="47.601054" lon="7.915633">
        <ele>321.909763</ele>
        <time>2021-11-07T10:53:25.397Z</time>
      </trkpt>
      <trkpt lat="47.601546" lon="7.915285">
        <ele>322.179575</ele>
        <time>2021-11-07T10:53:33.801Z</time>
      </trkpt>
      <trkpt lat="47.602131" lon="7.915025">
        <ele>322.481865</ele>
        <time>2021-11-07T10:53:43.485Z</time>
      </trkpt>
      <trkpt lat="47.602754" lon="7.914823">
        <ele>322.969899</ele>
        <time>2021-11-07T10:53:55.305Z</time>
      </trkpt>
      <trkpt lat="47.603302" lon="7.914722">
        <ele>323.737835</ele>
        <time>2021-11-07T10:54:06.443Z</time>
      </trkpt>
      <trkpt lat="47.603466" lon="7.914620">
        <ele>323.985143</ele>
        <time>2021-11-07T10:54:10.357Z</time>
      </trkpt>
      <trkpt lat="47.603615" lon="7.914449">
        <ele>324.247141</ele>
        <time>2021-11-07T10:54:14.308Z</time>
      </trkpt>
      <trkpt lat="47.603884" lon="7.914671">
        <ele>324.675240</ele>
        <time>2021-11-07T10:54:21.019Z</time>
      </trkpt>
      <trkpt lat="47.604062" lon="7.914772">
        <ele>324.940272</ele>
        <time>2021-11-07T10:54:25.219Z</time>
      </trkpt>
      <trkpt lat="47.604393" lon="7.914885">
        <ele>325.410731</ele>
        <time>2021-11-07T10:54:32.227Z</time>
      </trkpt>
      <trkpt lat="47.604722" lon="7.914915">
        <ele>325.864992</ele>
        <time>2021-11-07T10:54:38.860Z</time>
      </trkpt>
      <trkpt lat="47.605105" lon="7.914869">
        <ele>326.394544</ele>
        <time>2021-11-07T10:54:46.760Z</time>
      </trkpt>
      <trkpt lat="47.605408" lon="7.914750">
        <ele>326.826509</ele>
        <time>2021-11-07T10:54:53.426Z</time>
      </trkpt>
      <trkpt lat="47.605648" lon="7.914613">
        <ele>327.180911</ele>
        <time>2021-11-07T10:54:58.792Z</time>
      </trkpt>
      <trkpt lat="47.605929" lon="7.914457">
        <ele>327.594405</ele>
        <time>2021-11-07T10:55:04.708Z</time>
      </trkpt>
      <trkpt lat="47.606200" lon="7.914255">
        <ele>327.872835</ele>
        <time>2021-11-07T10:55:10.339Z</time>
      </trkpt>
      <trkpt lat="47.606450" lon="7.914067">
        <ele>328.095807</ele>
        <time>2021-11-07T10:55:15.223Z</time>
      </trkpt>
      <trkpt lat="47.606558" lon="7.913988">
        <ele>328.191599</ele>
        <time>2021-11-07T10:55:17.314Z</time>
      </trkpt>
      <trkpt lat="47.606706" lon="7.913869">
        <ele>328.325517</ele>
        <time>2021-11-07T10:55:20.195Z</time>
      </trkpt>
      <trkpt lat="47.606938" lon="7.913697">
        <ele>328.531840</ele>
        <time>2021-11-07T10:55:24.639Z</time>
      </trkpt>
      <trkpt lat="47.607292" lon="7.913435">
        <ele>328.846552</ele>
        <time>2021-11-07T10:55:31.642Z</time>
      </trkpt>
      <trkpt lat="47.607250" lon="7.913358">
        <ele>328.899671</ele>
        <time>2021-11-07T10:55:32.798Z</time>
      </trkpt>
      <trkpt lat="47.607218" lon="7.913269">
        <ele>328.953768</ele>
        <time>2021-11-07T10:55:33.984Z</time>
      </trkpt>
      <trkpt lat="47.607112" lon="7.913184">
        <ele>329.049623</ele>
        <time>2021-11-07T10:55:36.300Z</time>
      </trkpt>
      <trkpt lat="47.607149" lon="7.913091">
        <ele>329.107538</ele>
        <time>2021-11-07T10:55:37.694Z</time>
      </trkpt>
      <trkpt lat="47.607309" lon="7.913028">
        <ele>329.253639</ele>
        <time>2021-11-07T10:55:40.728Z</time>
      </trkpt>
      <trkpt lat="47.607362" lon="7.913064">
        <ele>329.305310</ele>
        <time>2021-11-07T10:55:41.780Z</time>
      </trkpt>
      <trkpt lat="47.607435" lon="7.913089">
        <ele>329.371719</ele>
        <time>2021-11-07T10:55:43.356Z</time>
      </trkpt>
      <trkpt lat="47.608352" lon="7.912531">
        <ele>330.250289</ele>
        <time>2021-11-07T10:56:01.114Z</time>
      </trkpt>
      <trkpt lat="47.609176" lon="7.911865">
        <ele>331.123023</ele>
        <time>2021-11-07T10:56:18.709Z</time>
      </trkpt>
      <trkpt lat="47.610601" lon="7.911148">
        <ele>332.519587</ele>
        <time>2021-11-07T10:56:47.316Z</time>
      </trkpt>
      <trkpt lat="47.611075" lon="7.910790">
        <ele>332.699831</ele>
        <time>2021-11-07T10:56:56.497Z</time>
      </trkpt>
      <trkpt lat="47.611410" lon="7.910540">
        <ele>332.826907</ele>
        <time>2021-11-07T10:57:02.487Z</time>
      </trkpt>
      <trkpt lat="47.611724" lon="7.910345">
        <ele>332.942259</ele>
        <time>2021-11-07T10:57:07.723Z</time>
      </trkpt>
      <trkpt lat="47.611840" lon="7.910284">
        <ele>332.983964</ele>
        <time>2021-11-07T10:57:09.455Z</time>
      </trkpt>
      <trkpt lat="47.611925" lon="7.910307">
        <ele>333.013242</ele>
        <time>2021-11-07T10:57:10.679Z</time>
      </trkpt>
      <trkpt lat="47.612020" lon="7.910364">
        <ele>333.047968</ele>
        <time>2021-11-07T10:57:12.522Z</time>
      </trkpt>
      <trkpt lat="47.612082" lon="7.910269">
        <ele>333.078174</ele>
        <time>2021-11-07T10:57:13.773Z</time>
      </trkpt>
      <trkpt lat="47.612131" lon="7.910214">
        <ele>333.061068</ele>
        <time>2021-11-07T10:57:14.601Z</time>
      </trkpt>
      <trkpt lat="47.612216" lon="7.910134">
        <ele>332.999786</ele>
        <time>2021-11-07T10:57:16.030Z</time>
      </trkpt>
      <trkpt lat="47.612897" lon="7.909812">
        <ele>332.564667</ele>
        <time>2021-11-07T10:57:26.288Z</time>
      </trkpt>
      <trkpt lat="47.613280" lon="7.909624">
        <ele>332.319078</ele>
        <time>2021-11-07T10:57:31.414Z</time>
      </trkpt>
      <trkpt lat="47.613360" lon="7.909602">
        <ele>332.269547</ele>
        <time>2021-11-07T10:57:32.503Z</time>
      </trkpt>
      <trkpt lat="47.613934" lon="7.909339">
        <ele>331.873399</ele>
        <time>2021-11-07T10:57:39.338Z</time>
      </trkpt>
      <trkpt lat="47.614063" lon="7.909285">
        <ele>331.763150</ele>
        <time>2021-11-07T10:57:40.952Z</time>
      </trkpt>
      <trkpt lat="47.614412" lon="7.909095">
        <ele>331.457369</ele>
        <time>2021-11-07T10:57:45.477Z</time>
      </trkpt>
      <trkpt lat="47.614784" lon="7.908839">
        <ele>331.120069</ele>
        <time>2021-11-07T10:57:50.686Z</time>
      </trkpt>
      <trkpt lat="47.614876" lon="7.908760">
        <ele>331.032633</ele>
        <time>2021-11-07T10:57:52.099Z</time>
      </trkpt>
      <trkpt lat="47.615085" lon="7.908567">
        <ele>330.830139</ele>
        <time>2021-11-07T10:57:55.241Z</time>
      </trkpt>
      <trkpt lat="47.615246" lon="7.908385">
        <ele>330.663646</ele>
        <time>2021-11-07T10:57:57.944Z</time>
      </trkpt>
      <trkpt lat="47.615374" lon="7.908222">
        <ele>330.524892</ele>
        <time>2021-11-07T10:58:00.060Z</time>
      </trkpt>
      <trkpt lat="47.615460" lon="7.908111">
        <ele>330.574300</ele>
        <time>2021-11-07T10:58:01.588Z</time>
      </trkpt>
      <trkpt lat="47.615669" lon="7.907870">
        <ele>330.746549</ele>
        <time>2021-11-07T10:58:05.140Z</time>
      </trkpt>
      <trkpt lat="47.615821" lon="7.907747">
        <ele>330.859212</ele>
        <time>2021-11-07T10:58:07.586Z</time>
      </trkpt>
      <trkpt lat="47.615946" lon="7.907692">
        <ele>330.944052</ele>
        <time>2021-11-07T10:58:09.393Z</time>
      </trkpt>
      <trkpt lat="47.616009" lon="7.907686">
        <ele>330.985130</ele>
        <time>2021-11-07T10:58:10.586Z</time>
      </trkpt>
      <trkpt lat="47.616124" lon="7.907729">
        <ele>331.062300</ele>
        <time>2021-11-07T10:58:12.545Z</time>
      </trkpt>
      <trkpt lat="47.616604" lon="7.908203">
        <ele>331.437506</ele>
        <time>2021-11-07T10:58:23.451Z</time>
      </trkpt>
      <trkpt lat="47.616669" lon="7.908227">
        <ele>331.481091</ele>
        <time>2021-11-07T10:58:24.941Z</time>
      </trkpt>
      <trkpt lat="47.616832" lon="7.908284">
        <ele>331.590062</ele>
        <time>2021-11-07T10:58:28.715Z</time>
      </trkpt>
      <trkpt lat="47.617086" lon="7.908230">
        <ele>331.984662</ele>
        <time>2021-11-07T10:58:34.438Z</time>
      </trkpt>
      <trkpt lat="47.617210" lon="7.908149">
        <ele>332.338305</ele>
        <time>2021-11-07T10:58:37.242Z</time>
      </trkpt>
      <trkpt lat="47.617238" lon="7.908130">
        <ele>332.418671</ele>
        <time>2021-11-07T10:58:37.892Z</time>
      </trkpt>
      <trkpt lat="47.617939" lon="7.907306">
        <ele>334.753111</ele>
        <time>2021-11-07T10:58:59.255Z</time>
      </trkpt>
      <trkpt lat="47.617957" lon="7.907285">
        <ele>334.812881</ele>
        <time>2021-11-07T10:59:00.175Z</time>
      </trkpt>
      <trkpt lat="47.618470" lon="7.907083">
        <ele>336.198238</ele>
        <time>2021-11-07T10:59:15.348Z</time>
      </trkpt>
      <trkpt lat="47.618579" lon="7.906988">
        <ele>336.576584</ele>
        <time>2021-11-07T10:59:18.416Z</time>
      </trkpt>
      <trkpt lat="47.618719" lon="7.906838">
        <ele>337.170718</ele>
        <time>2021-11-07T10:59:24.320Z</time>
      </trkpt>
      <trkpt lat="47.618759" lon="7.906749">
        <ele>337.418783</ele>
        <time>2021-11-07T10:59:26.521Z</time>
      </trkpt>
      <trkpt lat="47.618867" lon="7.906514">
        <ele>338.078369</ele>
        <time>2021-11-07T10:59:31.576Z</time>
      </trkpt>
      <trkpt lat="47.618888" lon="7.906392">
        <ele>338.370369</ele>
        <time>2021-11-07T10:59:34.702Z</time>
      </trkpt>
      <trkpt lat="47.618920" lon="7.906208">
        <ele>338.811043</ele>
        <time>2021-11-07T10:59:38.474Z</time>
      </trkpt>
      <trkpt lat="47.618945" lon="7.905907">
        <ele>339.514349</ele>
        <time>2021-11-07T10:59:44.336Z</time>
      </trkpt>
      <trkpt lat="47.618976" lon="7.905535">
        <ele>340.383593</ele>
        <time>2021-11-07T10:59:51.042Z</time>
      </trkpt>
      <trkpt lat="47.619009" lon="7.905495">
        <ele>340.530202</ele>
        <time>2021-11-07T10:59:52.145Z</time>
      </trkpt>
      <trkpt lat="47.619155" lon="7.905319">
        <ele>341.177417</ele>
        <time>2021-11-07T10:59:58.460Z</time>
      </trkpt>
      <trkpt lat="47.619274" lon="7.905310">
        <ele>341.587355</ele>
        <time>2021-11-07T11:00:01.038Z</time>
      </trkpt>
      <trkpt lat="47.619299" lon="7.905308">
        <ele>341.673489</ele>
        <time>2021-11-07T11:00:01.616Z</time>
      </trkpt>
      <trkpt lat="47.619447" lon="7.905300">
        <ele>342.183005</ele>
        <time>2021-11-07T11:00:06.871Z</time>
      </trkpt>
      <trkpt lat="47.620426" lon="7.905244">
        <ele>344.760762</ele>
        <time>2021-11-07T11:00:32.411Z</time>
      </trkpt>
      <trkpt lat="47.620426" lon="7.905244">
        <ele>344.760762</ele>
        <time>2021-11-07T11:00:32.474Z</time>
      </trkpt>
      <trkpt lat="47.620699" lon="7.905223">
        <ele>345.451809</ele>
        <time>2021-11-07T11:00:38.608Z</time>
      </trkpt>
      <trkpt lat="47.621107" lon="7.905191">
        <ele>346.484639</ele>
        <time>2021-11-07T11:00:48.211Z</time>
      </trkpt>
      <trkpt lat="47.621248" lon="7.905159">
        <ele>346.845221</ele>
        <time>2021-11-07T11:00:51.588Z</time>
      </trkpt>
      <trkpt lat="47.622235" lon="7.904957">
        <ele>348.529686</ele>
        <time>2021-11-07T11:01:13.524Z</time>
      </trkpt>
      <trkpt lat="47.622424" lon="7.904919">
        <ele>348.833301</ele>
        <time>2021-11-07T11:01:17.561Z</time>
      </trkpt>
      <trkpt lat="47.622648" lon="7.904863">
        <ele>349.194909</ele>
        <time>2021-11-07T11:01:22.343Z</time>
      </trkpt>
      <trkpt lat="47.623650" lon="7.904642">
        <ele>350.557210</ele>
        <time>2021-11-07T11:01:42.155Z</time>
      </trkpt>
      <trkpt lat="47.624120" lon="7.904530">
        <ele>351.087380</ele>
        <time>2021-11-07T11:01:51.485Z</time>
      </trkpt>
      <trkpt lat="47.624263" lon="7.904484">
        <ele>351.250345</ele>
        <time>2021-11-07T11:01:54.251Z</time>
      </trkpt>
      <trkpt lat="47.624399" lon="7.904386">
        <ele>351.418734</ele>
        <time>2021-11-07T11:01:56.900Z</time>
      </trkpt>
      <trkpt lat="47.624451" lon="7.904332">
        <ele>351.489425</ele>
        <time>2021-11-07T11:01:58.056Z</time>
      </trkpt>
      <trkpt lat="47.624451" lon="7.904332">
        <ele>351.489425</ele>
        <time>2021-11-07T11:01:58.087Z</time>
      </trkpt>
      <trkpt lat="47.624414" lon="7.904196">
        <ele>351.599517</ele>
        <time>2021-11-07T11:02:00.031Z</time>
      </trkpt>
      <trkpt lat="47.624405" lon="7.904073">
        <ele>351.692389</ele>
        <time>2021-11-07T11:02:01.498Z</time>
      </trkpt>
      <trkpt lat="47.624407" lon="7.904010">
        <ele>351.739733</ele>
        <time>2021-11-07T11:02:02.263Z</time>
      </trkpt>
      <trkpt lat="47.624428" lon="7.903850">
        <ele>351.862093</ele>
        <time>2021-11-07T11:02:04.109Z</time>
      </trkpt>
      <trkpt lat="47.624453" lon="7.903759">
        <ele>351.935859</ele>
        <time>2021-11-07T11:02:05.475Z</time>
      </trkpt>
      <trkpt lat="47.624520" lon="7.903577">
        <ele>352.168996</ele>
        <time>2021-11-07T11:02:07.963Z</time>
      </trkpt>
      <trkpt lat="47.624617" lon="7.903341">
        <ele>352.517365</ele>
        <time>2021-11-07T11:02:11.623Z</time>
      </trkpt>
      <trkpt lat="47.624713" lon="7.903090">
        <ele>352.881080</ele>
        <time>2021-11-07T11:02:15.886Z</time>
      </trkpt>
      <trkpt lat="47.624741" lon="7.903013">
        <ele>352.991345</ele>
        <time>2021-11-07T11:02:16.932Z</time>
      </trkpt>
      <trkpt lat="47.624784" lon="7.902894">
        <ele>353.161512</ele>
        <time>2021-11-07T11:02:18.831Z</time>
      </trkpt>
      <trkpt lat="47.624806" lon="7.902789">
        <ele>353.300088</ele>
        <time>2021-11-07T11:02:21.127Z</time>
      </trkpt>
      <trkpt lat="47.624846" lon="7.902780">
        <ele>353.375739</ele>
        <time>2021-11-07T11:02:21.949Z</time>
      </trkpt>
      <trkpt lat="47.624883" lon="7.902751">
        <ele>353.453986</ele>
        <time>2021-11-07T11:02:22.760Z</time>
      </trkpt>
      <trkpt lat="47.624910" lon="7.902705">
        <ele>353.530861</ele>
        <time>2021-11-07T11:02:23.560Z</time>
      </trkpt>
      <trkpt lat="47.624926" lon="7.902641">
        <ele>353.616888</ele>
        <time>2021-11-07T11:02:24.433Z</time>
      </trkpt>
      <trkpt lat="47.624925" lon="7.902572">
        <ele>353.703867</ele>
        <time>2021-11-07T11:02:25.319Z</time>
      </trkpt>
      <trkpt lat="47.624899" lon="7.902501">
        <ele>353.805701</ele>
        <time>2021-11-07T11:02:26.476Z</time>
      </trkpt>
      <trkpt lat="47.624951" lon="7.902421">
        <ele>353.945771</ele>
        <time>2021-11-07T11:02:28.853Z</time>
      </trkpt>
      <trkpt lat="47.625241" lon="7.901647">
        <ele>355.061817</ele>
        <time>2021-11-07T11:02:42.524Z</time>
      </trkpt>
      <trkpt lat="47.625293" lon="7.901611">
        <ele>355.169115</ele>
        <time>2021-11-07T11:02:43.902Z</time>
      </trkpt>
      <trkpt lat="47.625369" lon="7.901592">
        <ele>355.313230</ele>
        <time>2021-11-07T11:02:46.439Z</time>
      </trkpt>
      <trkpt lat="47.626663" lon="7.902101">
        <ele>358.305973</ele>
        <time>2021-11-07T11:03:19.082Z</time>
      </trkpt>
      <trkpt lat="47.627225" lon="7.902298">
        <ele>359.398895</ele>
        <time>2021-11-07T11:03:32.859Z</time>
      </trkpt>
      <trkpt lat="47.627453" lon="7.902345">
        <ele>359.465886</ele>
        <time>2021-11-07T11:03:37.418Z</time>
      </trkpt>
      <trkpt lat="47.627636" lon="7.902374">
        <ele>359.519446</ele>
        <time>2021-11-07T11:03:40.974Z</time>
      </trkpt>
      <trkpt lat="47.627939" lon="7.902419">
        <ele>359.608066</ele>
        <time>2021-11-07T11:03:46.382Z</time>
      </trkpt>
      <trkpt lat="47.628499" lon="7.902416">
        <ele>359.771040</ele>
        <time>2021-11-07T11:03:54.347Z</time>
      </trkpt>
      <trkpt lat="47.628663" lon="7.902374">
        <ele>359.819474</ele>
        <time>2021-11-07T11:03:56.506Z</time>
      </trkpt>
      <trkpt lat="47.628617" lon="7.902195">
        <ele>359.857047</ele>
        <time>2021-11-07T11:03:58.049Z</time>
      </trkpt>
      <trkpt lat="47.628469" lon="7.901825">
        <ele>359.638144</ele>
        <time>2021-11-07T11:04:01.463Z</time>
      </trkpt>
      <trkpt lat="47.628239" lon="7.901249">
        <ele>358.957030</ele>
        <time>2021-11-07T11:04:06.626Z</time>
      </trkpt>
      <trkpt lat="47.628120" lon="7.901056">
        <ele>358.690911</ele>
        <time>2021-11-07T11:04:08.586Z</time>
      </trkpt>
      <trkpt lat="47.627514" lon="7.900453">
        <ele>357.589485</ele>
        <time>2021-11-07T11:04:16.443Z</time>
      </trkpt>
      <trkpt lat="47.627440" lon="7.900175">
        <ele>357.285402</ele>
        <time>2021-11-07T11:04:18.581Z</time>
      </trkpt>
      <trkpt lat="47.627129" lon="7.898072">
        <ele>358.498677</ele>
        <time>2021-11-07T11:04:40.963Z</time>
      </trkpt>
      <trkpt lat="47.627064" lon="7.897836">
        <ele>358.663266</ele>
        <time>2021-11-07T11:04:44.695Z</time>
      </trkpt>
      <trkpt lat="47.626939" lon="7.897544">
        <ele>358.886591</ele>
        <time>2021-11-07T11:04:50.949Z</time>
      </trkpt>
      <trkpt lat="47.626680" lon="7.897256">
        <ele>361.674422</ele>
        <time>2021-11-07T11:05:02.896Z</time>
      </trkpt>
      <trkpt lat="47.626521" lon="7.897153">
        <ele>363.229977</ele>
        <time>2021-11-07T11:05:10.105Z</time>
      </trkpt>
      <trkpt lat="47.626428" lon="7.897120">
        <ele>364.087338</ele>
        <time>2021-11-07T11:05:14.269Z</time>
      </trkpt>
      <trkpt lat="47.626245" lon="7.897103">
        <ele>365.731347</ele>
        <time>2021-11-07T11:05:21.146Z</time>
      </trkpt>
      <trkpt lat="47.626062" lon="7.897113">
        <ele>367.373255</ele>
        <time>2021-11-07T11:05:33.499Z</time>
      </trkpt>
      <trkpt lat="47.625946" lon="7.897132">
        <ele>368.419641</ele>
        <time>2021-11-07T11:05:38.622Z</time>
      </trkpt>
      <trkpt lat="47.625709" lon="7.897156">
        <ele>370.549550</ele>
        <time>2021-11-07T11:05:55.351Z</time>
      </trkpt>
      <trkpt lat="47.625555" lon="7.897164">
        <ele>371.931175</ele>
        <time>2021-11-07T11:06:02.651Z</time>
      </trkpt>
      <trkpt lat="47.625408" lon="7.897172">
        <ele>373.250078</ele>
        <time>2021-11-07T11:06:14.991Z</time>
      </trkpt>
      <trkpt lat="47.625188" lon="7.897128">
        <ele>375.331731</ele>
        <time>2021-11-07T11:06:26.231Z</time>
      </trkpt>
      <trkpt lat="47.625133" lon="7.897004">
        <ele>376.612426</ele>
        <time>2021-11-07T11:06:34.790Z</time>
      </trkpt>
      <trkpt lat="47.625137" lon="7.896861">
        <ele>377.847222</ele>
        <time>2021-11-07T11:06:41.283Z</time>
      </trkpt>
      <trkpt lat="47.625217" lon="7.896657">
        <ele>379.883483</ele>
        <time>2021-11-07T11:06:49.008Z</time>
      </trkpt>
      <trkpt lat="47.625340" lon="7.896501">
        <ele>381.954833</ele>
        <time>2021-11-07T11:07:02.470Z</time>
      </trkpt>
      <trkpt lat="47.625546" lon="7.896308">
        <ele>385.073521</ele>
        <time>2021-11-07T11:07:17.135Z</time>
      </trkpt>
      <trkpt lat="47.626363" lon="7.895584">
        <ele>397.255130</ele>
        <time>2021-11-07T11:08:21.487Z</time>
      </trkpt>
      <trkpt lat="47.626674" lon="7.895101">
        <ele>402.500467</ele>
        <time>2021-11-07T11:08:52.597Z</time>
      </trkpt>
      <trkpt lat="47.626865" lon="7.894506">
        <ele>407.593584</ele>
        <time>2021-11-07T11:09:19.528Z</time>
      </trkpt>
      <trkpt lat="47.626855" lon="7.893551">
        <ele>414.974722</ele>
        <time>2021-11-07T11:09:56.070Z</time>
      </trkpt>
      <trkpt lat="47.626818" lon="7.893202">
        <ele>417.704963</ele>
        <time>2021-11-07T11:10:10.638Z</time>
      </trkpt>
      <trkpt lat="47.626714" lon="7.892752">
        <ele>420.801640</ele>
        <time>2021-11-07T11:10:29.185Z</time>
      </trkpt>
      <trkpt lat="47.626348" lon="7.891663">
        <ele>428.190947</ele>
        <time>2021-11-07T11:11:12.604Z</time>
      </trkpt>
      <trkpt lat="47.626263" lon="7.891476">
        <ele>429.560584</ele>
        <time>2021-11-07T11:11:21.246Z</time>
      </trkpt>
      <trkpt lat="47.626106" lon="7.891132">
        <ele>432.083344</ele>
        <time>2021-11-07T11:11:34.542Z</time>
      </trkpt>
      <trkpt lat="47.625853" lon="7.890611">
        <ele>435.632970</ele>
        <time>2021-11-07T11:11:52.710Z</time>
      </trkpt>
      <trkpt lat="47.625716" lon="7.890252">
        <ele>437.342824</ele>
        <time>2021-11-07T11:12:03.222Z</time>
      </trkpt>
      <trkpt lat="47.625564" lon="7.889453">
        <ele>440.783724</ele>
        <time>2021-11-07T11:12:26.426Z</time>
      </trkpt>
      <trkpt lat="47.625499" lon="7.888101">
        <ele>446.318401</ele>
        <time>2021-11-07T11:13:00.188Z</time>
      </trkpt>
      <trkpt lat="47.625484" lon="7.887146">
        <ele>449.562366</ele>
        <time>2021-11-07T11:13:23.687Z</time>
      </trkpt>
      <trkpt lat="47.625481" lon="7.886856">
        <ele>450.547294</ele>
        <time>2021-11-07T11:13:30.070Z</time>
      </trkpt>
      <trkpt lat="47.625441" lon="7.886331">
        <ele>452.341499</ele>
        <time>2021-11-07T11:13:42.685Z</time>
      </trkpt>
      <trkpt lat="47.625424" lon="7.886225">
        <ele>452.711515</ele>
        <time>2021-11-07T11:13:45.145Z</time>
      </trkpt>
      <trkpt lat="47.625398" lon="7.886057">
        <ele>453.296875</ele>
        <time>2021-11-07T11:13:50.026Z</time>
      </trkpt>
      <trkpt lat="47.625152" lon="7.885204">
        <ele>456.113111</ele>
        <time>2021-11-07T11:14:10.191Z</time>
      </trkpt>
      <trkpt lat="47.624490" lon="7.883959">
        <ele>460.250089</ele>
        <time>2021-11-07T11:14:42.834Z</time>
      </trkpt>
      <trkpt lat="47.624331" lon="7.883160">
        <ele>462.235782</ele>
        <time>2021-11-07T11:14:58.325Z</time>
      </trkpt>
      <trkpt lat="47.624310" lon="7.883001">
        <ele>462.484904</ele>
        <time>2021-11-07T11:15:01.392Z</time>
      </trkpt>
      <trkpt lat="47.624255" lon="7.882581">
        <ele>463.142757</ele>
        <time>2021-11-07T11:15:09.412Z</time>
      </trkpt>
      <trkpt lat="47.624168" lon="7.882017">
        <ele>464.032367</ele>
        <time>2021-11-07T11:15:19.351Z</time>
      </trkpt>
      <trkpt lat="47.623987" lon="7.881363">
        <ele>465.119413</ele>
        <time>2021-11-07T11:15:30.404Z</time>
      </trkpt>
      <trkpt lat="47.623737" lon="7.880886">
        <ele>466.048487</ele>
        <time>2021-11-07T11:15:39.191Z</time>
      </trkpt>
      <trkpt lat="47.623726" lon="7.880866">
        <ele>466.069622</ele>
        <time>2021-11-07T11:15:39.579Z</time>
      </trkpt>
      <trkpt lat="47.623689" lon="7.880796">
        <ele>466.069570</ele>
        <time>2021-11-07T11:15:40.662Z</time>
      </trkpt>
      <trkpt lat="47.623257" lon="7.880066">
        <ele>466.069000</ele>
        <time>2021-11-07T11:15:50.613Z</time>
      </trkpt>
      <trkpt lat="47.622668" lon="7.879223">
        <ele>466.068288</ele>
        <time>2021-11-07T11:16:01.346Z</time>
      </trkpt>
      <trkpt lat="47.622140" lon="7.878531">
        <ele>466.321791</ele>
        <time>2021-11-07T11:16:10.865Z</time>
      </trkpt>
      <trkpt lat="47.621851" lon="7.878198">
        <ele>466.529451</ele>
        <time>2021-11-07T11:16:16.875Z</time>
      </trkpt>
      <trkpt lat="47.621473" lon="7.877633">
        <ele>466.833957</ele>
        <time>2021-11-07T11:16:27.208Z</time>
      </trkpt>
      <trkpt lat="47.620646" lon="7.876653">
        <ele>466.421578</ele>
        <time>2021-11-07T11:16:48.345Z</time>
      </trkpt>
      <trkpt lat="47.620438" lon="7.876135">
        <ele>465.976585</ele>
        <time>2021-11-07T11:16:52.871Z</time>
      </trkpt>
      <trkpt lat="47.620355" lon="7.875825">
        <ele>465.730408</ele>
        <time>2021-11-07T11:16:55.480Z</time>
      </trkpt>
      <trkpt lat="47.620229" lon="7.875324">
        <ele>465.335756</ele>
        <time>2021-11-07T11:16:59.294Z</time>
      </trkpt>
      <trkpt lat="47.620060" lon="7.874687">
        <ele>464.140856</ele>
        <time>2021-11-07T11:17:03.931Z</time>
      </trkpt>
      <trkpt lat="47.619939" lon="7.874280">
        <ele>463.028777</ele>
        <time>2021-11-07T11:17:06.924Z</time>
      </trkpt>
      <trkpt lat="47.619829" lon="7.874041">
        <ele>462.305270</ele>
        <time>2021-11-07T11:17:08.817Z</time>
      </trkpt>
      <trkpt lat="47.619528" lon="7.873535">
        <ele>460.618084</ele>
        <time>2021-11-07T11:17:13.123Z</time>
      </trkpt>
      <trkpt lat="47.618120" lon="7.871681">
        <ele>453.731869</ele>
        <time>2021-11-07T11:17:32.142Z</time>
      </trkpt>
      <trkpt lat="47.617973" lon="7.871350">
        <ele>452.760707</ele>
        <time>2021-11-07T11:17:34.759Z</time>
      </trkpt>
      <trkpt lat="47.617864" lon="7.870723">
        <ele>450.855370</ele>
        <time>2021-11-07T11:17:38.966Z</time>
      </trkpt>
      <trkpt lat="47.617859" lon="7.869709">
        <ele>447.295215</ele>
        <time>2021-11-07T11:17:45.384Z</time>
      </trkpt>
      <trkpt lat="47.617186" lon="7.867759">
        <ele>440.504726</ele>
        <time>2021-11-07T11:17:59.027Z</time>
      </trkpt>
      <trkpt lat="47.617092" lon="7.867491">
        <ele>439.769238</ele>
        <time>2021-11-07T11:18:00.971Z</time>
      </trkpt>
      <trkpt lat="47.616988" lon="7.867193">
        <ele>438.952287</ele>
        <time>2021-11-07T11:18:03.274Z</time>
      </trkpt>
      <trkpt lat="47.616709" lon="7.866450">
        <ele>436.881715</ele>
        <time>2021-11-07T11:18:09.304Z</time>
      </trkpt>
      <trkpt lat="47.616072" lon="7.865259">
        <ele>434.272837</ele>
        <time>2021-11-07T11:18:21.705Z</time>
      </trkpt>
      <trkpt lat="47.615975" lon="7.864921">
        <ele>433.719382</ele>
        <time>2021-11-07T11:18:24.915Z</time>
      </trkpt>
      <trkpt lat="47.615826" lon="7.863677">
        <ele>431.225553</ele>
        <time>2021-11-07T11:18:33.822Z</time>
      </trkpt>
      <trkpt lat="47.615791" lon="7.863469">
        <ele>429.997967</ele>
        <time>2021-11-07T11:18:35.132Z</time>
      </trkpt>
      <trkpt lat="47.615733" lon="7.863226">
        <ele>428.521862</ele>
        <time>2021-11-07T11:18:36.685Z</time>
      </trkpt>
      <trkpt lat="47.615533" lon="7.862749">
        <ele>425.305227</ele>
        <time>2021-11-07T11:18:40.051Z</time>
      </trkpt>
      <trkpt lat="47.615143" lon="7.862040">
        <ele>420.065217</ele>
        <time>2021-11-07T11:18:45.362Z</time>
      </trkpt>
      <trkpt lat="47.615080" lon="7.861804">
        <ele>418.611723</ele>
        <time>2021-11-07T11:18:46.857Z</time>
      </trkpt>
      <trkpt lat="47.615092" lon="7.861630">
        <ele>417.610158</ele>
        <time>2021-11-07T11:18:47.838Z</time>
      </trkpt>
      <trkpt lat="47.615241" lon="7.860672">
        <ele>410.835251</ele>
        <time>2021-11-07T11:18:53.462Z</time>
      </trkpt>
      <trkpt lat="47.615334" lon="7.860080">
        <ele>406.518512</ele>
        <time>2021-11-07T11:18:56.910Z</time>
      </trkpt>
      <trkpt lat="47.615543" lon="7.858897">
        <ele>397.833730</ele>
        <time>2021-11-07T11:19:04.043Z</time>
      </trkpt>
      <trkpt lat="47.615609" lon="7.858249">
        <ele>395.247484</ele>
        <time>2021-11-07T11:19:08.009Z</time>
      </trkpt>
      <trkpt lat="47.615612" lon="7.857977">
        <ele>394.180249</ele>
        <time>2021-11-07T11:19:09.612Z</time>
      </trkpt>
      <trkpt lat="47.615620" lon="7.857851">
        <ele>393.683747</ele>
        <time>2021-11-07T11:19:10.403Z</time>
      </trkpt>
      <trkpt lat="47.615675" lon="7.857668">
        <ele>392.897691</ele>
        <time>2021-11-07T11:19:11.628Z</time>
      </trkpt>
      <trkpt lat="47.616062" lon="7.857266">
        <ele>390.148164</ele>
        <time>2021-11-07T11:19:15.942Z</time>
      </trkpt>
      <trkpt lat="47.616185" lon="7.856991">
        <ele>388.853429</ele>
        <time>2021-11-07T11:19:18.187Z</time>
      </trkpt>
      <trkpt lat="47.616206" lon="7.856813">
        <ele>388.144505</ele>
        <time>2021-11-07T11:19:19.316Z</time>
      </trkpt>
      <trkpt lat="47.616000" lon="7.856839">
        <ele>387.470781</ele>
        <time>2021-11-07T11:19:21.698Z</time>
      </trkpt>
      <trkpt lat="47.615844" lon="7.856900">
        <ele>387.804193</ele>
        <time>2021-11-07T11:19:23.315Z</time>
      </trkpt>
      <trkpt lat="47.615591" lon="7.856559">
        <ele>388.510643</ele>
        <time>2021-11-07T11:19:30.758Z</time>
      </trkpt>
      <trkpt lat="47.615230" lon="7.856082">
        <ele>389.509751</ele>
        <time>2021-11-07T11:19:45.062Z</time>
      </trkpt>
      <trkpt lat="47.615482" lon="7.855744">
        <ele>390.211865</ele>
        <time>2021-11-07T11:19:57.383Z</time>
      </trkpt>
      <trkpt lat="47.615886" lon="7.855415">
        <ele>391.438736</ele>
        <time>2021-11-07T11:20:15.715Z</time>
      </trkpt>
      <trkpt lat="47.615919" lon="7.855292">
        <ele>392.062820</ele>
        <time>2021-11-07T11:20:19.247Z</time>
      </trkpt>
      <trkpt lat="47.615940" lon="7.855213">
        <ele>392.463152</ele>
        <time>2021-11-07T11:20:21.559Z</time>
      </trkpt>
      <trkpt lat="47.615853" lon="7.854674">
        <ele>395.075930</ele>
        <time>2021-11-07T11:20:40.424Z</time>
      </trkpt>
      <trkpt lat="47.615855" lon="7.854602">
        <ele>395.415640</ele>
        <time>2021-11-07T11:20:43.784Z</time>
      </trkpt>
      <trkpt lat="47.615860" lon="7.854339">
        <ele>396.655968</ele>
        <time>2021-11-07T11:20:52.492Z</time>
      </trkpt>
      <trkpt lat="47.615857" lon="7.854262">
        <ele>397.019567</ele>
        <time>2021-11-07T11:20:54.922Z</time>
      </trkpt>
      <trkpt lat="47.615794" lon="7.854262">
        <ele>397.460147</ele>
        <time>2021-11-07T11:20:57.842Z</time>
      </trkpt>
      <trkpt lat="47.615213" lon="7.854374">
        <ele>401.557442</ele>
        <time>2021-11-07T11:21:27.942Z</time>
      </trkpt>
      <trkpt lat="47.614801" lon="7.854465">
        <ele>404.580664</ele>
        <time>2021-11-07T11:21:47.167Z</time>
      </trkpt>
      <trkpt lat="47.614629" lon="7.854431">
        <ele>405.952840</ele>
        <time>2021-11-07T11:21:57.837Z</time>
      </trkpt>
      <trkpt lat="47.614301" lon="7.854162">
        <ele>408.916627</ele>
        <time>2021-11-07T11:22:15.636Z</time>
      </trkpt>
      <trkpt lat="47.614100" lon="7.854196">
        <ele>410.516409</ele>
        <time>2021-11-07T11:22:23.146Z</time>
      </trkpt>
      <trkpt lat="47.613988" lon="7.854392">
        <ele>411.886132</ele>
        <time>2021-11-07T11:22:32.998Z</time>
      </trkpt>
      <trkpt lat="47.613792" lon="7.854776">
        <ele>414.453771</ele>
        <time>2021-11-07T11:22:50.662Z</time>
      </trkpt>
      <trkpt lat="47.613659" lon="7.854700">
        <ele>415.580854</ele>
        <time>2021-11-07T11:22:58.202Z</time>
      </trkpt>
      <trkpt lat="47.613607" lon="7.854572">
        <ele>416.377536</ele>
        <time>2021-11-07T11:23:02.891Z</time>
      </trkpt>
      <trkpt lat="47.613564" lon="7.854464">
        <ele>417.046192</ele>
        <time>2021-11-07T11:23:09.110Z</time>
      </trkpt>
      <trkpt lat="47.613558" lon="7.853788">
        <ele>420.629901</ele>
        <time>2021-11-07T11:23:36.105Z</time>
      </trkpt>
      <trkpt lat="47.613350" lon="7.853629">
        <ele>422.466871</ele>
        <time>2021-11-07T11:23:49.613Z</time>
      </trkpt>
      <trkpt lat="47.613147" lon="7.853586">
        <ele>424.076692</ele>
        <time>2021-11-07T11:24:01.112Z</time>
      </trkpt>
      <trkpt lat="47.612894" lon="7.853499">
        <ele>426.115542</ele>
        <time>2021-11-07T11:24:15.459Z</time>
      </trkpt>
      <trkpt lat="47.612473" lon="7.853153">
        <ele>429.893977</ele>
        <time>2021-11-07T11:24:38.675Z</time>
      </trkpt>
      <trkpt lat="47.612366" lon="7.853056">
        <ele>430.878430</ele>
        <time>2021-11-07T11:24:44.080Z</time>
      </trkpt>
      <trkpt lat="47.612224" lon="7.852925">
        <ele>432.051169</ele>
        <time>2021-11-07T11:24:51.223Z</time>
      </trkpt>
      <trkpt lat="47.611909" lon="7.852604">
        <ele>433.139377</ele>
        <time>2021-11-07T11:25:06.807Z</time>
      </trkpt>
      <trkpt lat="47.611487" lon="7.852197">
        <ele>434.572656</ele>
        <time>2021-11-07T11:25:23.419Z</time>
      </trkpt>
      <trkpt lat="47.611373" lon="7.852022">
        <ele>435.039798</ele>
        <time>2021-11-07T11:25:27.531Z</time>
      </trkpt>
      <trkpt lat="47.611197" lon="7.851511">
        <ele>436.141328</ele>
        <time>2021-11-07T11:25:36.962Z</time>
      </trkpt>
      <trkpt lat="47.610866" lon="7.850970">
        <ele>437.513121</ele>
        <time>2021-11-07T11:25:48.113Z</time>
      </trkpt>
      <trkpt lat="47.610164" lon="7.850132">
        <ele>439.904502</ele>
        <time>2021-11-07T11:26:14.128Z</time>
      </trkpt>
      <trkpt lat="47.609900" lon="7.849721">
        <ele>440.920177</ele>
        <time>2021-11-07T11:26:26.888Z</time>
      </trkpt>
      <trkpt lat="47.609671" lon="7.849581">
        <ele>441.577506</ele>
        <time>2021-11-07T11:26:35.989Z</time>
      </trkpt>
      <trkpt lat="47.609180" lon="7.849407">
        <ele>443.255126</ele>
        <time>2021-11-07T11:26:55.660Z</time>
      </trkpt>
      <trkpt lat="47.608958" lon="7.849213">
        <ele>444.158799</ele>
        <time>2021-11-07T11:27:05.393Z</time>
      </trkpt>
      <trkpt lat="47.608647" lon="7.848750">
        <ele>445.704182</ele>
        <time>2021-11-07T11:27:21.365Z</time>
      </trkpt>
      <trkpt lat="47.608499" lon="7.848767">
        <ele>446.224799</ele>
        <time>2021-11-07T11:27:26.522Z</time>
      </trkpt>
      <trkpt lat="47.608193" lon="7.849027">
        <ele>447.461610</ele>
        <time>2021-11-07T11:27:37.626Z</time>
      </trkpt>
      <trkpt lat="47.607779" lon="7.849458">
        <ele>448.200463</ele>
        <time>2021-11-07T11:27:51.827Z</time>
      </trkpt>
      <trkpt lat="47.607512" lon="7.849734">
        <ele>448.228388</ele>
        <time>2021-11-07T11:28:00.185Z</time>
      </trkpt>
      <trkpt lat="47.607206" lon="7.849906">
        <ele>448.256466</ele>
        <time>2021-11-07T11:28:07.530Z</time>
      </trkpt>
      <trkpt lat="47.606841" lon="7.850541">
        <ele>448.304738</ele>
        <time>2021-11-07T11:28:17.445Z</time>
      </trkpt>
      <trkpt lat="47.606642" lon="7.850761">
        <ele>448.326034</ele>
        <time>2021-11-07T11:28:21.357Z</time>
      </trkpt>
      <trkpt lat="47.606432" lon="7.850826">
        <ele>447.648797</ele>
        <time>2021-11-07T11:28:24.693Z</time>
      </trkpt>
      <trkpt lat="47.606259" lon="7.850845">
        <ele>447.000223</ele>
        <time>2021-11-07T11:28:27.414Z</time>
      </trkpt>
      <trkpt lat="47.605922" lon="7.850724">
        <ele>445.703873</ele>
        <time>2021-11-07T11:28:32.523Z</time>
      </trkpt>
      <trkpt lat="47.605584" lon="7.850507">
        <ele>444.326868</ele>
        <time>2021-11-07T11:28:37.738Z</time>
      </trkpt>
      <trkpt lat="47.605181" lon="7.850167">
        <ele>442.593446</ele>
        <time>2021-11-07T11:28:44.100Z</time>
      </trkpt>
      <trkpt lat="47.605011" lon="7.850048">
        <ele>441.890626</ele>
        <time>2021-11-07T11:28:46.631Z</time>
      </trkpt>
      <trkpt lat="47.604823" lon="7.849877">
        <ele>440.479697</ele>
        <time>2021-11-07T11:28:49.575Z</time>
      </trkpt>
      <trkpt lat="47.604551" lon="7.849629">
        <ele>437.985037</ele>
        <time>2021-11-07T11:28:53.764Z</time>
      </trkpt>
      <trkpt lat="47.603736" lon="7.848907">
        <ele>430.567783</ele>
        <time>2021-11-07T11:29:05.826Z</time>
      </trkpt>
      <trkpt lat="47.602606" lon="7.848016">
        <ele>417.764717</ele>
        <time>2021-11-07T11:29:21.243Z</time>
      </trkpt>
      <trkpt lat="47.602486" lon="7.847821">
        <ele>415.815364</ele>
        <time>2021-11-07T11:29:23.388Z</time>
      </trkpt>
      <trkpt lat="47.602400" lon="7.847680">
        <ele>414.411494</ele>
        <time>2021-11-07T11:29:24.903Z</time>
      </trkpt>
      <trkpt lat="47.602282" lon="7.847374">
        <ele>411.808637</ele>
        <time>2021-11-07T11:29:27.820Z</time>
      </trkpt>
      <trkpt lat="47.602236" lon="7.847007">
        <ele>409.052351</ele>
        <time>2021-11-07T11:29:30.868Z</time>
      </trkpt>
      <trkpt lat="47.602243" lon="7.846717">
        <ele>407.068586</ele>
        <time>2021-11-07T11:29:33.185Z</time>
      </trkpt>
      <trkpt lat="47.602229" lon="7.845655">
        <ele>400.544818</ele>
        <time>2021-11-07T11:29:41.844Z</time>
      </trkpt>
      <trkpt lat="47.602253" lon="7.845252">
        <ele>398.060064</ele>
        <time>2021-11-07T11:29:45.303Z</time>
      </trkpt>
      <trkpt lat="47.602198" lon="7.844937">
        <ele>396.061605</ele>
        <time>2021-11-07T11:29:48.078Z</time>
      </trkpt>
      <trkpt lat="47.600807" lon="7.843916">
        <ele>383.967815</ele>
        <time>2021-11-07T11:30:07.738Z</time>
      </trkpt>
      <trkpt lat="47.600072" lon="7.843673">
        <ele>378.581294</ele>
        <time>2021-11-07T11:30:17.433Z</time>
      </trkpt>
      <trkpt lat="47.599763" lon="7.843535">
        <ele>376.873457</ele>
        <time>2021-11-07T11:30:21.644Z</time>
      </trkpt>
      <trkpt lat="47.599568" lon="7.843496">
        <ele>375.832133</ele>
        <time>2021-11-07T11:30:24.237Z</time>
      </trkpt>
      <trkpt lat="47.598937" lon="7.843561">
        <ele>372.484700</ele>
        <time>2021-11-07T11:30:32.714Z</time>
      </trkpt>
      <trkpt lat="47.598696" lon="7.843499">
        <ele>371.190228</ele>
        <time>2021-11-07T11:30:36.040Z</time>
      </trkpt>
      <trkpt lat="47.598536" lon="7.843376">
        <ele>370.236465</ele>
        <time>2021-11-07T11:30:38.532Z</time>
      </trkpt>
      <trkpt lat="47.598238" lon="7.842763">
        <ele>367.930895</ele>
        <time>2021-11-07T11:30:45.628Z</time>
      </trkpt>
      <trkpt lat="47.598058" lon="7.842175">
        <ele>366.213410</ele>
        <time>2021-11-07T11:30:51.732Z</time>
      </trkpt>
      <trkpt lat="47.597842" lon="7.841614">
        <ele>364.495244</ele>
        <time>2021-11-07T11:30:57.839Z</time>
      </trkpt>
      <trkpt lat="47.597727" lon="7.841333">
        <ele>363.621003</ele>
        <time>2021-11-07T11:31:00.949Z</time>
      </trkpt>
      <trkpt lat="47.597263" lon="7.840840">
        <ele>361.508188</ele>
        <time>2021-11-07T11:31:09.128Z</time>
      </trkpt>
      <trkpt lat="47.596993" lon="7.840544">
        <ele>360.483748</ele>
        <time>2021-11-07T11:31:13.975Z</time>
      </trkpt>
      <trkpt lat="47.596578" lon="7.839929">
        <ele>358.693714</ele>
        <time>2021-11-07T11:31:22.503Z</time>
      </trkpt>
      <trkpt lat="47.595964" lon="7.838747">
        <ele>355.414224</ele>
        <time>2021-11-07T11:31:37.732Z</time>
      </trkpt>
      <trkpt lat="47.595487" lon="7.838131">
        <ele>353.019070</ele>
        <time>2021-11-07T11:31:47.242Z</time>
      </trkpt>
      <trkpt lat="47.594966" lon="7.837645">
        <ele>350.688344</ele>
        <time>2021-11-07T11:31:56.063Z</time>
      </trkpt>
      <trkpt lat="47.594385" lon="7.837297">
        <ele>345.949563</ele>
        <time>2021-11-07T11:32:04.195Z</time>
      </trkpt>
      <trkpt lat="47.593826" lon="7.836849">
        <ele>339.379824</ele>
        <time>2021-11-07T11:32:12.068Z</time>
      </trkpt>
      <trkpt lat="47.593342" lon="7.836538">
        <ele>333.926008</ele>
        <time>2021-11-07T11:32:18.402Z</time>
      </trkpt>
      <trkpt lat="47.593173" lon="7.836468">
        <ele>332.111792</ele>
        <time>2021-11-07T11:32:20.396Z</time>
      </trkpt>
      <trkpt lat="47.592897" lon="7.836379">
        <ele>328.541189</ele>
        <time>2021-11-07T11:32:23.706Z</time>
      </trkpt>
      <trkpt lat="47.592250" lon="7.836371">
        <ele>319.555729</ele>
        <time>2021-11-07T11:32:31.300Z</time>
      </trkpt>
      <trkpt lat="47.592182" lon="7.836371">
        <ele>318.611386</ele>
        <time>2021-11-07T11:32:32.093Z</time>
      </trkpt>
      <trkpt lat="47.592110" lon="7.836372">
        <ele>317.611449</ele>
        <time>2021-11-07T11:32:32.922Z</time>
      </trkpt>
      <trkpt lat="47.591953" lon="7.836379">
        <ele>315.430142</ele>
        <time>2021-11-07T11:32:34.833Z</time>
      </trkpt>
      <trkpt lat="47.591704" lon="7.836354">
        <ele>311.964261</ele>
        <time>2021-11-07T11:32:37.706Z</time>
      </trkpt>
      <trkpt lat="47.590166" lon="7.836338">
        <ele>297.237697</ele>
        <time>2021-11-07T11:32:56.539Z</time>
      </trkpt>
      <trkpt lat="47.590263" lon="7.835856">
        <ele>294.542172</ele>
        <time>2021-11-07T11:32:59.790Z</time>
      </trkpt>
      <trkpt lat="47.589181" lon="7.835983">
        <ele>288.815375</ele>
        <time>2021-11-07T11:33:10.224Z</time>
      </trkpt>
      <trkpt lat="47.588272" lon="7.836090">
        <ele>285.129168</ele>
        <time>2021-11-07T11:33:19.190Z</time>
      </trkpt>
      <trkpt lat="47.587903" lon="7.836007">
        <ele>284.020522</ele>
        <time>2021-11-07T11:33:22.888Z</time>
      </trkpt>
      <trkpt lat="47.587628" lon="7.835942">
        <ele>283.381868</ele>
        <time>2021-11-07T11:33:25.703Z</time>
      </trkpt>
      <trkpt lat="47.587848" lon="7.834235">
        <ele>280.693670</ele>
        <time>2021-11-07T11:33:38.342Z</time>
      </trkpt>
      <trkpt lat="47.586496" lon="7.833050">
        <ele>280.608459</ele>
        <time>2021-11-07T11:34:00.654Z</time>
      </trkpt>
      <trkpt lat="47.586276" lon="7.833601">
        <ele>280.901531</ele>
        <time>2021-11-07T11:34:08.907Z</time>
      </trkpt>
      <trkpt lat="47.585278" lon="7.832688">
        <ele>284.342436</ele>
        <time>2021-11-07T11:34:40.361Z</time>
      </trkpt>
      <trkpt lat="47.585247" lon="7.832651">
        <ele>284.459207</ele>
        <time>2021-11-07T11:34:41.662Z</time>
      </trkpt>
      <trkpt lat="47.585195" lon="7.832588">
        <ele>284.656249</ele>
        <time>2021-11-07T11:34:43.857Z</time>
      </trkpt>
      <trkpt lat="47.585027" lon="7.832425">
        <ele>285.245364</ele>
        <time>2021-11-07T11:34:49.265Z</time>
      </trkpt>
      <trkpt lat="47.584717" lon="7.832264">
        <ele>286.333145</ele>
        <time>2021-11-07T11:34:58.930Z</time>
      </trkpt>
      <trkpt lat="47.584367" lon="7.832247">
        <ele>287.818815</ele>
        <time>2021-11-07T11:35:10.031Z</time>
      </trkpt>
      <trkpt lat="47.584156" lon="7.832334">
        <ele>288.747957</ele>
        <time>2021-11-07T11:35:17.738Z</time>
      </trkpt>
      <trkpt lat="47.584029" lon="7.832543">
        <ele>289.552938</ele>
        <time>2021-11-07T11:35:24.474Z</time>
      </trkpt>
      <trkpt lat="47.583849" lon="7.832883">
        <ele>290.789781</ele>
        <time>2021-11-07T11:35:34.863Z</time>
      </trkpt>
      <trkpt lat="47.583696" lon="7.833171">
        <ele>291.838851</ele>
        <time>2021-11-07T11:35:43.569Z</time>
      </trkpt>
      <trkpt lat="47.583523" lon="7.833509">
        <ele>293.053024</ele>
        <time>2021-11-07T11:35:52.028Z</time>
      </trkpt>
      <trkpt lat="47.583401" lon="7.833658">
        <ele>293.646057</ele>
        <time>2021-11-07T11:35:55.901Z</time>
      </trkpt>
      <trkpt lat="47.583327" lon="7.833750">
        <ele>293.859374</ele>
        <time>2021-11-07T11:35:59.027Z</time>
      </trkpt>
      <trkpt lat="47.583163" lon="7.833942">
        <ele>294.320946</ele>
        <time>2021-11-07T11:36:04.520Z</time>
      </trkpt>
      <trkpt lat="47.582828" lon="7.834117">
        <ele>295.105488</ele>
        <time>2021-11-07T11:36:12.967Z</time>
      </trkpt>
      <trkpt lat="47.580816" lon="7.834599">
        <ele>298.350916</ele>
        <time>2021-11-07T11:36:56.847Z</time>
      </trkpt>
      <trkpt lat="47.580667" lon="7.834627">
        <ele>298.481568</ele>
        <time>2021-11-07T11:36:59.228Z</time>
      </trkpt>
      <trkpt lat="47.579073" lon="7.834987">
        <ele>298.477040</ele>
        <time>2021-11-07T11:37:23.189Z</time>
      </trkpt>
      <trkpt lat="47.576219" lon="7.835650">
        <ele>295.338794</ele>
        <time>2021-11-07T11:37:56.849Z</time>
      </trkpt>
      <trkpt lat="47.575959" lon="7.835718">
        <ele>295.199411</ele>
        <time>2021-11-07T11:38:00.005Z</time>
      </trkpt>
      <trkpt lat="47.575033" lon="7.835907">
        <ele>294.705931</ele>
        <time>2021-11-07T11:38:12.458Z</time>
      </trkpt>
      <trkpt lat="47.574568" lon="7.836025">
        <ele>294.516824</ele>
        <time>2021-11-07T11:38:19.445Z</time>
      </trkpt>
      <trkpt lat="47.574158" lon="7.836106">
        <ele>294.675964</ele>
        <time>2021-11-07T11:38:26.118Z</time>
      </trkpt>
      <trkpt lat="47.573815" lon="7.836215">
        <ele>294.810929</ele>
        <time>2021-11-07T11:38:33.797Z</time>
      </trkpt>
      <trkpt lat="47.573348" lon="7.836386">
        <ele>294.996006</ele>
        <time>2021-11-07T11:38:44.649Z</time>
      </trkpt>
      <trkpt lat="47.572760" lon="7.836606">
        <ele>295.260740</ele>
        <time>2021-11-07T11:38:58.260Z</time>
      </trkpt>
      <trkpt lat="47.572296" lon="7.836777">
        <ele>295.570947</ele>
        <time>2021-11-07T11:39:08.685Z</time>
      </trkpt>
      <trkpt lat="47.572139" lon="7.836834">
        <ele>295.675820</ele>
        <time>2021-11-07T11:39:12.171Z</time>
      </trkpt>
      <trkpt lat="47.571871" lon="7.836932">
        <ele>295.854911</ele>
        <time>2021-11-07T11:39:18.209Z</time>
      </trkpt>
      <trkpt lat="47.571771" lon="7.836971">
        <ele>295.921999</ele>
        <time>2021-11-07T11:39:20.445Z</time>
      </trkpt>
      <trkpt lat="47.571254" lon="7.837161">
        <ele>296.267584</ele>
        <time>2021-11-07T11:39:32.895Z</time>
      </trkpt>
      <trkpt lat="47.570985" lon="7.837265">
        <ele>296.554482</ele>
        <time>2021-11-07T11:39:39.849Z</time>
      </trkpt>
      <trkpt lat="47.570872" lon="7.837307">
        <ele>296.712713</ele>
        <time>2021-11-07T11:39:42.865Z</time>
      </trkpt>
      <trkpt lat="47.570298" lon="7.837528">
        <ele>297.518206</ele>
        <time>2021-11-07T11:39:58.187Z</time>
      </trkpt>
      <trkpt lat="47.570038" lon="7.837643">
        <ele>297.886733</ele>
        <time>2021-11-07T11:40:05.310Z</time>
      </trkpt>
      <trkpt lat="47.569907" lon="7.837696">
        <ele>298.071170</ele>
        <time>2021-11-07T11:40:08.831Z</time>
      </trkpt>
      <trkpt lat="47.569814" lon="7.837733">
        <ele>298.201956</ele>
        <time>2021-11-07T11:40:11.393Z</time>
      </trkpt>
      <trkpt lat="47.569665" lon="7.837789">
        <ele>298.410736</ele>
        <time>2021-11-07T11:40:15.357Z</time>
      </trkpt>
      <trkpt lat="47.569522" lon="7.837844">
        <ele>298.611395</ele>
        <time>2021-11-07T11:40:19.213Z</time>
      </trkpt>
      <trkpt lat="47.569310" lon="7.837922">
        <ele>298.887093</ele>
        <time>2021-11-07T11:40:24.959Z</time>
      </trkpt>
      <trkpt lat="47.568988" lon="7.838054">
        <ele>299.257770</ele>
        <time>2021-11-07T11:40:33.736Z</time>
      </trkpt>
      <trkpt lat="47.568420" lon="7.838300">
        <ele>299.914329</ele>
        <time>2021-11-07T11:40:48.995Z</time>
      </trkpt>
      <trkpt lat="47.568160" lon="7.838415">
        <ele>300.215374</ele>
        <time>2021-11-07T11:40:55.407Z</time>
      </trkpt>
      <trkpt lat="47.568121" lon="7.838422">
        <ele>300.258962</ele>
        <time>2021-11-07T11:40:56.311Z</time>
      </trkpt>
      <trkpt lat="47.568042" lon="7.838436">
        <ele>300.347237</ele>
        <time>2021-11-07T11:40:58.142Z</time>
      </trkpt>
      <trkpt lat="47.567936" lon="7.838380">
        <ele>300.472094</ele>
        <time>2021-11-07T11:41:00.674Z</time>
      </trkpt>
      <trkpt lat="47.567846" lon="7.838609">
        <ele>300.670487</ele>
        <time>2021-11-07T11:41:03.704Z</time>
      </trkpt>
      <trkpt lat="47.567823" lon="7.838648">
        <ele>300.709264</ele>
        <time>2021-11-07T11:41:04.360Z</time>
      </trkpt>
      <trkpt lat="47.567634" lon="7.839037">
        <ele>300.981975</ele>
        <time>2021-11-07T11:41:09.776Z</time>
      </trkpt>
      <trkpt lat="47.567626" lon="7.839064">
        <ele>300.997235</ele>
        <time>2021-11-07T11:41:10.189Z</time>
      </trkpt>
      <trkpt lat="47.567564" lon="7.839283">
        <ele>301.120136</ele>
        <time>2021-11-07T11:41:12.905Z</time>
      </trkpt>
      <trkpt lat="47.567540" lon="7.839407">
        <ele>301.186893</ele>
        <time>2021-11-07T11:41:14.439Z</time>
      </trkpt>
      <trkpt lat="47.567530" lon="7.839459">
        <ele>301.214874</ele>
        <time>2021-11-07T11:41:15.095Z</time>
      </trkpt>
      <trkpt lat="47.567510" lon="7.839548">
        <ele>301.263418</ele>
        <time>2021-11-07T11:41:16.218Z</time>
      </trkpt>
      <trkpt lat="47.567481" lon="7.839664">
        <ele>301.327435</ele>
        <time>2021-11-07T11:41:17.558Z</time>
      </trkpt>
      <trkpt lat="47.567406" lon="7.839778">
        <ele>301.409831</ele>
        <time>2021-11-07T11:41:19.608Z</time>
      </trkpt>
      <trkpt lat="47.567111" lon="7.839998">
        <ele>301.663115</ele>
        <time>2021-11-07T11:41:25.589Z</time>
      </trkpt>
      <trkpt lat="47.566826" lon="7.840179">
        <ele>301.900924</ele>
        <time>2021-11-07T11:41:31.110Z</time>
      </trkpt>
      <trkpt lat="47.566592" lon="7.840279">
        <ele>302.087706</ele>
        <time>2021-11-07T11:41:35.739Z</time>
      </trkpt>
      <trkpt lat="47.566515" lon="7.840312">
        <ele>302.149182</ele>
        <time>2021-11-07T11:41:37.029Z</time>
      </trkpt>
      <trkpt lat="47.566450" lon="7.840326">
        <ele>302.215777</ele>
        <time>2021-11-07T11:41:38.267Z</time>
      </trkpt>
      <trkpt lat="47.566350" lon="7.840350">
        <ele>302.334175</ele>
        <time>2021-11-07T11:41:40.175Z</time>
      </trkpt>
      <trkpt lat="47.566221" lon="7.840340">
        <ele>302.485151</ele>
        <time>2021-11-07T11:41:42.508Z</time>
      </trkpt>
      <trkpt lat="47.566142" lon="7.840322">
        <ele>302.578567</ele>
        <time>2021-11-07T11:41:43.741Z</time>
      </trkpt>
      <trkpt lat="47.566081" lon="7.840309">
        <ele>302.650595</ele>
        <time>2021-11-07T11:41:44.954Z</time>
      </trkpt>
      <trkpt lat="47.565906" lon="7.840272">
        <ele>302.857198</ele>
        <time>2021-11-07T11:41:48.404Z</time>
      </trkpt>
      <trkpt lat="47.565343" lon="7.840185">
        <ele>303.518774</ele>
        <time>2021-11-07T11:41:59.725Z</time>
      </trkpt>
      <trkpt lat="47.565233" lon="7.840176">
        <ele>303.647533</ele>
        <time>2021-11-07T11:42:02.063Z</time>
      </trkpt>
      <trkpt lat="47.565168" lon="7.840179">
        <ele>303.723539</ele>
        <time>2021-11-07T11:42:03.438Z</time>
      </trkpt>
      <trkpt lat="47.565057" lon="7.840213">
        <ele>303.856013</ele>
        <time>2021-11-07T11:42:05.681Z</time>
      </trkpt>
      <trkpt lat="47.564936" lon="7.840261">
        <ele>304.002411</ele>
        <time>2021-11-07T11:42:08.397Z</time>
      </trkpt>
      <trkpt lat="47.564558" lon="7.840516">
        <ele>304.463870</ele>
        <time>2021-11-07T11:42:16.680Z</time>
      </trkpt>
      <trkpt lat="47.564534" lon="7.840532">
        <ele>304.491234</ele>
        <time>2021-11-07T11:42:17.177Z</time>
      </trkpt>
      <trkpt lat="47.564463" lon="7.840580">
        <ele>304.572379</ele>
        <time>2021-11-07T11:42:18.791Z</time>
      </trkpt>
      <trkpt lat="47.564094" lon="7.840838">
        <ele>304.996625</ele>
        <time>2021-11-07T11:42:26.451Z</time>
      </trkpt>
      <trkpt lat="47.563986" lon="7.840916">
        <ele>305.121549</ele>
        <time>2021-11-07T11:42:28.739Z</time>
      </trkpt>
      <trkpt lat="47.563941" lon="7.840948">
        <ele>305.173448</ele>
        <time>2021-11-07T11:42:29.664Z</time>
      </trkpt>
      <trkpt lat="47.563805" lon="7.841046">
        <ele>305.330692</ele>
        <time>2021-11-07T11:42:32.471Z</time>
      </trkpt>
      <trkpt lat="47.563659" lon="7.841150">
        <ele>305.499130</ele>
        <time>2021-11-07T11:42:35.362Z</time>
      </trkpt>
      <trkpt lat="47.563483" lon="7.841269">
        <ele>305.700283</ele>
        <time>2021-11-07T11:42:39.091Z</time>
      </trkpt>
      <trkpt lat="47.563300" lon="7.841391">
        <ele>305.908934</ele>
        <time>2021-11-07T11:42:42.652Z</time>
      </trkpt>
      <trkpt lat="47.563016" lon="7.841568">
        <ele>306.248411</ele>
        <time>2021-11-07T11:42:48.508Z</time>
      </trkpt>
      <trkpt lat="47.562965" lon="7.841597">
        <ele>306.317514</ele>
        <time>2021-11-07T11:42:49.487Z</time>
      </trkpt>
      <trkpt lat="47.562904" lon="7.841632">
        <ele>306.400263</ele>
        <time>2021-11-07T11:42:50.715Z</time>
      </trkpt>
      <trkpt lat="47.562574" lon="7.841873">
        <ele>306.865661</ele>
        <time>2021-11-07T11:42:57.681Z</time>
      </trkpt>
      <trkpt lat="47.562440" lon="7.842083">
        <ele>307.112379</ele>
        <time>2021-11-07T11:43:01.301Z</time>
      </trkpt>
      <trkpt lat="47.562385" lon="7.842183">
        <ele>307.222505</ele>
        <time>2021-11-07T11:43:02.867Z</time>
      </trkpt>
      <trkpt lat="47.562300" lon="7.842326">
        <ele>307.385180</ele>
        <time>2021-11-07T11:43:05.767Z</time>
      </trkpt>
      <trkpt lat="47.562179" lon="7.842500">
        <ele>307.598468</ele>
        <time>2021-11-07T11:43:09.246Z</time>
      </trkpt>
      <trkpt lat="47.561498" lon="7.843130">
        <ele>308.556884</ele>
        <time>2021-11-07T11:43:25.957Z</time>
      </trkpt>
      <trkpt lat="47.561434" lon="7.843181">
        <ele>308.622232</ele>
        <time>2021-11-07T11:43:27.762Z</time>
      </trkpt>
      <trkpt lat="47.561038" lon="7.843502">
        <ele>309.028146</ele>
        <time>2021-11-07T11:43:36.463Z</time>
      </trkpt>
      <trkpt lat="47.560934" lon="7.843550">
        <ele>309.126103</ele>
        <time>2021-11-07T11:43:38.618Z</time>
      </trkpt>
      <trkpt lat="47.560812" lon="7.843560">
        <ele>309.235984</ele>
        <time>2021-11-07T11:43:40.862Z</time>
      </trkpt>
      <trkpt lat="47.560515" lon="7.843379">
        <ele>309.524777</ele>
        <time>2021-11-07T11:43:46.598Z</time>
      </trkpt>
      <trkpt lat="47.560430" lon="7.843341">
        <ele>309.604619</ele>
        <time>2021-11-07T11:43:48.400Z</time>
      </trkpt>
      <trkpt lat="47.560338" lon="7.843341">
        <ele>309.687354</ele>
        <time>2021-11-07T11:43:49.623Z</time>
      </trkpt>
      <trkpt lat="47.560209" lon="7.843393">
        <ele>309.807577</ele>
        <time>2021-11-07T11:43:52.099Z</time>
      </trkpt>
      <trkpt lat="47.560139" lon="7.843433">
        <ele>309.875046</ele>
        <time>2021-11-07T11:43:53.418Z</time>
      </trkpt>
      <trkpt lat="47.559847" lon="7.843604">
        <ele>310.016683</ele>
        <time>2021-11-07T11:43:58.586Z</time>
      </trkpt>
      <trkpt lat="47.559583" lon="7.843813">
        <ele>309.979264</ele>
        <time>2021-11-07T11:44:03.076Z</time>
      </trkpt>
      <trkpt lat="47.559158" lon="7.844233">
        <ele>309.915402</ele>
        <time>2021-11-07T11:44:10.286Z</time>
      </trkpt>
      <trkpt lat="47.559109" lon="7.844229">
        <ele>309.909267</ele>
        <time>2021-11-07T11:44:10.876Z</time>
      </trkpt>
      <trkpt lat="47.559060" lon="7.844197">
        <ele>309.902572</ele>
        <time>2021-11-07T11:44:11.507Z</time>
      </trkpt>
      <trkpt lat="47.558884" lon="7.843836">
        <ele>309.865000</ele>
        <time>2021-11-07T11:44:15.659Z</time>
      </trkpt>
      <trkpt lat="47.558555" lon="7.843392">
        <ele>309.809370</ele>
        <time>2021-11-07T11:44:21.695Z</time>
      </trkpt>
      <trkpt lat="47.558471" lon="7.843365">
        <ele>309.822243</ele>
        <time>2021-11-07T11:44:22.952Z</time>
      </trkpt>
      <trkpt lat="47.558405" lon="7.843371">
        <ele>309.832796</ele>
        <time>2021-11-07T11:44:24.121Z</time>
      </trkpt>
      <trkpt lat="47.558136" lon="7.843582">
        <ele>309.881368</ele>
        <time>2021-11-07T11:44:28.328Z</time>
      </trkpt>
      <trkpt lat="47.557967" lon="7.843683">
        <ele>309.910449</ele>
        <time>2021-11-07T11:44:31.047Z</time>
      </trkpt>
      <trkpt lat="47.557846" lon="7.843756">
        <ele>309.931298</ele>
        <time>2021-11-07T11:44:32.891Z</time>
      </trkpt>
      <trkpt lat="47.557759" lon="7.843839">
        <ele>309.947811</ele>
        <time>2021-11-07T11:44:34.667Z</time>
      </trkpt>
      <trkpt lat="47.557715" lon="7.843940">
        <ele>309.960758</ele>
        <time>2021-11-07T11:44:35.896Z</time>
      </trkpt>
      <trkpt lat="47.557560" lon="7.844433">
        <ele>310.019331</ele>
        <time>2021-11-07T11:44:41.855Z</time>
      </trkpt>
      <trkpt lat="47.557282" lon="7.844832">
        <ele>310.081095</ele>
        <time>2021-11-07T11:44:48.287Z</time>
      </trkpt>
      <trkpt lat="47.557134" lon="7.845095">
        <ele>310.203492</ele>
        <time>2021-11-07T11:44:52.063Z</time>
      </trkpt>
      <trkpt lat="47.556636" lon="7.845928">
        <ele>310.790568</ele>
        <time>2021-11-07T11:45:04.894Z</time>
      </trkpt>
      <trkpt lat="47.556060" lon="7.846859">
        <ele>311.456876</ele>
        <time>2021-11-07T11:45:21.006Z</time>
      </trkpt>
      <trkpt lat="47.555990" lon="7.846965">
        <ele>311.556895</ele>
        <time>2021-11-07T11:45:22.974Z</time>
      </trkpt>
      <trkpt lat="47.555966" lon="7.846932">
        <ele>311.599353</ele>
        <time>2021-11-07T11:45:23.554Z</time>
      </trkpt>
      <trkpt lat="47.555892" lon="7.846856">
        <ele>311.716108</ele>
        <time>2021-11-07T11:45:25.149Z</time>
      </trkpt>
      <trkpt lat="47.555855" lon="7.846815">
        <ele>311.776021</ele>
        <time>2021-11-07T11:45:26.054Z</time>
      </trkpt>
      <trkpt lat="47.555727" lon="7.846715">
        <ele>311.963663</ele>
        <time>2021-11-07T11:45:29.041Z</time>
      </trkpt>
      <trkpt lat="47.555227" lon="7.846688">
        <ele>312.612469</ele>
        <time>2021-11-07T11:45:38.479Z</time>
      </trkpt>
      <trkpt lat="47.555199" lon="7.846687">
        <ele>312.648789</ele>
        <time>2021-11-07T11:45:39.028Z</time>
      </trkpt>
      <trkpt lat="47.555068" lon="7.846672">
        <ele>312.819170</ele>
        <time>2021-11-07T11:45:41.877Z</time>
      </trkpt>
      <trkpt lat="47.554995" lon="7.846915">
        <ele>313.051949</ele>
        <time>2021-11-07T11:45:45.567Z</time>
      </trkpt>
      <trkpt lat="47.554892" lon="7.847148">
        <ele>313.295711</ele>
        <time>2021-11-07T11:45:49.570Z</time>
      </trkpt>
      <trkpt lat="47.554759" lon="7.847388">
        <ele>313.567485</ele>
        <time>2021-11-07T11:45:53.886Z</time>
      </trkpt>
      <trkpt lat="47.554618" lon="7.847626">
        <ele>313.845718</ele>
        <time>2021-11-07T11:45:58.441Z</time>
      </trkpt>
      <trkpt lat="47.554465" lon="7.847858">
        <ele>314.159644</ele>
        <time>2021-11-07T11:46:03.093Z</time>
      </trkpt>
      <trkpt lat="47.554351" lon="7.848049">
        <ele>314.406409</ele>
        <time>2021-11-07T11:46:06.534Z</time>
      </trkpt>
      <trkpt lat="47.554269" lon="7.848188">
        <ele>314.585080</ele>
        <time>2021-11-07T11:46:09.109Z</time>
      </trkpt>
      <trkpt lat="47.554209" lon="7.848300">
        <ele>314.723470</ele>
        <time>2021-11-07T11:46:11.194Z</time>
      </trkpt>
      <trkpt lat="47.554055" lon="7.848586">
        <ele>315.077562</ele>
        <time>2021-11-07T11:46:16.061Z</time>
      </trkpt>
      <trkpt lat="47.553725" lon="7.849291">
        <ele>315.907904</ele>
        <time>2021-11-07T11:46:27.429Z</time>
      </trkpt>
      <trkpt lat="47.553605" lon="7.849629">
        <ele>316.277522</ele>
        <time>2021-11-07T11:46:32.883Z</time>
      </trkpt>
      <trkpt lat="47.553537" lon="7.849904">
        <ele>316.637414</ele>
        <time>2021-11-07T11:46:37.074Z</time>
      </trkpt>
      <trkpt lat="47.553380" lon="7.850453">
        <ele>317.514012</ele>
        <time>2021-11-07T11:46:45.926Z</time>
      </trkpt>
      <trkpt lat="47.553344" lon="7.850525">
        <ele>317.645749</ele>
        <time>2021-11-07T11:46:47.192Z</time>
      </trkpt>
      <trkpt lat="47.553283" lon="7.850634">
        <ele>317.853925</ele>
        <time>2021-11-07T11:46:49.246Z</time>
      </trkpt>
      <trkpt lat="47.552876" lon="7.851300">
        <ele>319.174825</ele>
        <time>2021-11-07T11:47:03.079Z</time>
      </trkpt>
      <trkpt lat="47.552678" lon="7.851709">
        <ele>319.914832</ele>
        <time>2021-11-07T11:47:11.760Z</time>
      </trkpt>
      <trkpt lat="47.552449" lon="7.852231">
        <ele>321.078213</ele>
        <time>2021-11-07T11:47:23.060Z</time>
      </trkpt>
      <trkpt lat="47.552272" lon="7.852167">
        <ele>321.672646</ele>
        <time>2021-11-07T11:47:28.460Z</time>
      </trkpt>
      <trkpt lat="47.552097" lon="7.852063">
        <ele>322.287821</ele>
        <time>2021-11-07T11:47:33.708Z</time>
      </trkpt>
      <trkpt lat="47.552042" lon="7.852007">
        <ele>322.505551</ele>
        <time>2021-11-07T11:47:36.107Z</time>
      </trkpt>
      <trkpt lat="47.551925" lon="7.851845">
        <ele>323.028016</ele>
        <time>2021-11-07T11:47:40.373Z</time>
      </trkpt>
      <trkpt lat="47.551830" lon="7.851603">
        <ele>323.644489</ele>
        <time>2021-11-07T11:47:46.195Z</time>
      </trkpt>
      <trkpt lat="47.551660" lon="7.851725">
        <ele>324.260772</ele>
        <time>2021-11-07T11:47:51.429Z</time>
      </trkpt>
      <trkpt lat="47.551516" lon="7.851950">
        <ele>324.943566</ele>
        <time>2021-11-07T11:47:57.987Z</time>
      </trkpt>
      <trkpt lat="47.550221" lon="7.853833">
        <ele>329.607074</ele>
        <time>2021-11-07T11:48:45.279Z</time>
      </trkpt>
      <trkpt lat="47.549883" lon="7.854434">
        <ele>330.536717</ele>
        <time>2021-11-07T11:48:55.399Z</time>
      </trkpt>
      <trkpt lat="47.549566" lon="7.855225">
        <ele>330.729644</ele>
        <time>2021-11-07T11:49:09.258Z</time>
      </trkpt>
      <trkpt lat="47.549362" lon="7.855774">
        <ele>330.861076</ele>
        <time>2021-11-07T11:49:17.747Z</time>
      </trkpt>
      <trkpt lat="47.548887" lon="7.857308">
        <ele>331.176496</ele>
        <time>2021-11-07T11:49:39.855Z</time>
      </trkpt>
      <trkpt lat="47.548743" lon="7.857692">
        <ele>331.247586</ele>
        <time>2021-11-07T11:49:45.826Z</time>
      </trkpt>
      <trkpt lat="47.548701" lon="7.857893">
        <ele>331.281637</ele>
        <time>2021-11-07T11:49:48.798Z</time>
      </trkpt>
      <trkpt lat="47.548686" lon="7.857973">
        <ele>331.295073</ele>
        <time>2021-11-07T11:49:49.921Z</time>
      </trkpt>
      <trkpt lat="47.548611" lon="7.858381">
        <ele>331.363505</ele>
        <time>2021-11-07T11:49:56.135Z</time>
      </trkpt>
      <trkpt lat="47.548334" lon="7.859801">
        <ele>332.151086</ele>
        <time>2021-11-07T11:50:19.172Z</time>
      </trkpt>
      <trkpt lat="47.548049" lon="7.860929">
        <ele>333.199892</ele>
        <time>2021-11-07T11:50:40.191Z</time>
      </trkpt>
      <trkpt lat="47.547930" lon="7.861711">
        <ele>333.915049</ele>
        <time>2021-11-07T11:50:54.954Z</time>
      </trkpt>
      <trkpt lat="47.547568" lon="7.863151">
        <ele>335.482158</ele>
        <time>2021-11-07T11:51:24.115Z</time>
      </trkpt>
      <trkpt lat="47.547320" lon="7.863864">
        <ele>336.300172</ele>
        <time>2021-11-07T11:51:38.084Z</time>
      </trkpt>
      <trkpt lat="47.547257" lon="7.863966">
        <ele>336.441175</ele>
        <time>2021-11-07T11:51:40.092Z</time>
      </trkpt>
      <trkpt lat="47.546974" lon="7.864423">
        <ele>336.418788</ele>
        <time>2021-11-07T11:51:48.977Z</time>
      </trkpt>
      <trkpt lat="47.546885" lon="7.864500">
        <ele>336.391779</ele>
        <time>2021-11-07T11:51:51.308Z</time>
      </trkpt>
      <trkpt lat="47.546885" lon="7.864500">
        <ele>336.391779</ele>
        <time>2021-11-07T11:51:51.424Z</time>
      </trkpt>
      <trkpt lat="47.546894" lon="7.864837">
        <ele>336.332123</ele>
        <time>2021-11-07T11:51:55.492Z</time>
      </trkpt>
      <trkpt lat="47.546889" lon="7.865225">
        <ele>336.263479</ele>
        <time>2021-11-07T11:52:00.773Z</time>
      </trkpt>
      <trkpt lat="47.546869" lon="7.865302">
        <ele>336.248885</ele>
        <time>2021-11-07T11:52:01.735Z</time>
      </trkpt>
      <trkpt lat="47.546819" lon="7.865489">
        <ele>336.213307</ele>
        <time>2021-11-07T11:52:04.637Z</time>
      </trkpt>
      <trkpt lat="47.546510" lon="7.865766">
        <ele>336.118661</ele>
        <time>2021-11-07T11:52:11.265Z</time>
      </trkpt>
      <trkpt lat="47.546507" lon="7.865769">
        <ele>336.117713</ele>
        <time>2021-11-07T11:52:11.301Z</time>
      </trkpt>
      <trkpt lat="47.546327" lon="7.865959">
        <ele>336.059794</ele>
        <time>2021-11-07T11:52:14.931Z</time>
      </trkpt>
      <trkpt lat="47.546096" lon="7.866147">
        <ele>335.939556</ele>
        <time>2021-11-07T11:52:19.388Z</time>
      </trkpt>
      <trkpt lat="47.545240" lon="7.866887">
        <ele>335.431481</ele>
        <time>2021-11-07T11:52:36.015Z</time>
      </trkpt>
      <trkpt lat="47.545232" lon="7.866897">
        <ele>335.426115</ele>
        <time>2021-11-07T11:52:36.177Z</time>
      </trkpt>
      <trkpt lat="47.545160" lon="7.866985">
        <ele>335.378264</ele>
        <time>2021-11-07T11:52:38.152Z</time>
      </trkpt>
      <trkpt lat="47.545003" lon="7.867278">
        <ele>335.248811</ele>
        <time>2021-11-07T11:52:43.977Z</time>
      </trkpt>
      <trkpt lat="47.544913" lon="7.867364">
        <ele>335.193908</ele>
        <time>2021-11-07T11:52:46.590Z</time>
      </trkpt>
      <trkpt lat="47.544568" lon="7.867693">
        <ele>335.485964</ele>
        <time>2021-11-07T11:52:56.750Z</time>
      </trkpt>
      <trkpt lat="47.544469" lon="7.867776">
        <ele>335.639035</ele>
        <time>2021-11-07T11:52:59.622Z</time>
      </trkpt>
      <trkpt lat="47.544410" lon="7.867825">
        <ele>335.730053</ele>
        <time>2021-11-07T11:53:01.719Z</time>
      </trkpt>
      <trkpt lat="47.544246" lon="7.867967">
        <ele>335.985667</ele>
        <time>2021-11-07T11:53:06.385Z</time>
      </trkpt>
      <trkpt lat="47.544214" lon="7.867988">
        <ele>336.032763</ele>
        <time>2021-11-07T11:53:07.236Z</time>
      </trkpt>
      <trkpt lat="47.543801" lon="7.868269">
        <ele>336.644323</ele>
        <time>2021-11-07T11:53:18.848Z</time>
      </trkpt>
      <trkpt lat="47.543657" lon="7.868359">
        <ele>336.854634</ele>
        <time>2021-11-07T11:53:23.178Z</time>
      </trkpt>
      <trkpt lat="47.543201" lon="7.868657">
        <ele>337.525298</ele>
        <time>2021-11-07T11:53:33.444Z</time>
      </trkpt>
      <trkpt lat="47.543105" lon="7.868711">
        <ele>337.542489</ele>
        <time>2021-11-07T11:53:35.989Z</time>
      </trkpt>
      <trkpt lat="47.543058" lon="7.868751">
        <ele>337.542489</ele>
        <time>2021-11-07T11:53:37.092Z</time>
      </trkpt>
      <trkpt lat="47.543049" lon="7.868759">
        <ele>337.542489</ele>
        <time>2021-11-07T11:53:37.286Z</time>
      </trkpt>
      <trkpt lat="47.542722" lon="7.869201">
        <ele>337.542489</ele>
        <time>2021-11-07T11:53:46.687Z</time>
      </trkpt>
      <trkpt lat="47.542696" lon="7.869257">
        <ele>337.542489</ele>
        <time>2021-11-07T11:53:47.429Z</time>
      </trkpt>
      <trkpt lat="47.542657" lon="7.869354">
        <ele>337.542489</ele>
        <time>2021-11-07T11:53:48.830Z</time>
      </trkpt>
      <trkpt lat="47.542372" lon="7.869746">
        <ele>337.542489</ele>
        <time>2021-11-07T11:53:55.663Z</time>
      </trkpt>
      <trkpt lat="47.542329" lon="7.869820">
        <ele>337.542489</ele>
        <time>2021-11-07T11:53:56.858Z</time>
      </trkpt>
      <trkpt lat="47.542329" lon="7.869820">
        <ele>337.542489</ele>
        <time>2021-11-07T11:53:56.861Z</time>
      </trkpt>
    </trkseg>
  </trk>
</gpx>